GW4803 Weather Reports


time (UTC)temp
C
wind
direction
speed
KPH
gust
KPH
rain 1hr
cm
rain 24hr
cm
rain mn
cm
humidity
%
barometer
mb
20260906213504 37 132 14.5 27.4 0.00 0.00 0.00 31 1015.9
20260906213402 37 132 17.7 27.4 0.00 0.00 0.00 31 1016.0
20260906213301 37 135 17.7 27.4 0.00 0.00 0.00 31 1016.0
20260906213201 37 134 19.3 27.4 0.00 0.00 0.00 31 1016.0
20260906213002 37 81 14.5 27.4 0.00 0.00 0.00 31 1016.0
20260906212902 37 121 11.3 27.4 0.00 0.00 0.00 31 1016.0
20260906212803 37 93 19.3 27.4 0.00 0.00 0.00 31 1016.1
20260906212702 37 113 22.5 27.4 0.00 0.00 0.00 31 1016.0
20260906212603 37 128 20.9 27.4 0.00 0.00 0.00 31 1016.0
20260906212504 37 125 8.0 24.1 0.00 0.00 0.00 31 1016.1
20260906212402 37 134 14.5 24.1 0.00 0.00 0.00 32 1016.1
20260906212204 37 120 16.1 27.4 0.00 0.00 0.00 32 1016.1
20260906212102 37 105 14.5 27.4 0.00 0.00 0.00 32 1016.2
20260906212003 37 115 19.3 27.4 0.00 0.00 0.00 32 1016.1
20260906211906 37 129 19.3 27.4 0.00 0.00 0.00 32 1016.2
20260906211802 37 135 17.7 27.4 0.00 0.00 0.00 32 1016.2
20260906211700 37 98 19.3 27.4 0.00 0.00 0.00 32 1016.2
20260906211504 37 112 17.7 27.4 0.00 0.00 0.00 32 1016.3
20260906211304 37 121 12.9 27.4 0.00 0.00 0.00 32 1016.3
20260906211202 36 118 20.9 27.4 0.00 0.00 0.00 33 1016.4
20260906211104 36 134 20.9 27.4 0.00 0.00 0.00 33 1016.4
20260906211003 36 128 17.7 20.9 0.00 0.00 0.00 33 1016.4
20260906210901 36 135 11.3 20.9 0.00 0.00 0.00 34 1016.4
20260906210702 36 123 11.3 24.1 0.00 0.00 0.00 34 1016.5
20260906210603 36 117 11.3 24.1 0.00 0.00 0.00 34 1016.5
20260906210504 36 132 1.6 24.1 0.00 0.00 0.00 33 1016.5
20260906210402 36 132 8.0 24.1 0.00 0.00 0.00 33 1016.5
20260906210301 36 143 12.9 24.1 0.00 0.00 0.00 33 1016.5
20260906210202 36 124 19.3 24.1 0.00 0.00 0.00 33 1016.6
20260906210103 36 120 12.9 24.1 0.00 0.00 0.00 33 1016.6
20260906210001 36 151 12.9 24.1 0.00 0.00 0.00 33 1016.6
20260906205903 36 142 22.5 25.7 0.00 0.00 0.00 34 1016.6
20260906205803 36 149 17.7 25.7 0.00 0.00 0.00 34 1016.6
20260906205702 36 141 8.0 27.4 0.00 0.00 0.00 34 1016.7
20260906205501 36 139 16.1 27.4 0.00 0.00 0.00 34 1016.7
20260906205401 36 121 14.5 27.4 0.00 0.00 0.00 34 1016.7
20260906205259 36 134 14.5 27.4 0.00 0.00 0.00 34 1016.8
20260906205201 36 128 16.1 27.4 0.00 0.00 0.00 34 1016.8
20260906205101 36 140 14.5 27.4 0.00 0.00 0.00 33 1016.8
20260906205003 36 146 12.9 27.4 0.00 0.00 0.00 33 1016.8
20260906204902 36 146 19.3 27.4 0.00 0.00 0.00 33 1016.8
20260906204801 36 142 22.5 27.4 0.00 0.00 0.00 33 1016.8
20260906204701 36 136 12.9 27.4 0.00 0.00 0.00 33 1016.9
20260906204603 36 134 8.0 27.4 0.00 0.00 0.00 33 1016.8
20260906204505 36 140 20.9 25.7 0.00 0.00 0.00 33 1016.8
20260906204402 36 154 9.7 19.3 0.00 0.00 0.00 33 1016.8
20260906204303 36 145 8.0 19.3 0.00 0.00 0.00 33 1016.8
20260906204202 36 146 9.7 19.3 0.00 0.00 0.00 33 1016.9
20260906204100 36 140 16.1 19.3 0.00 0.00 0.00 33 1016.9
20260906204001 36 140 16.1 19.3 0.00 0.00 0.00 33 1016.9
20260906203901 36 161 12.9 22.5 0.00 0.00 0.00 32 1017.0
20260906203802 36 148 16.1 22.5 0.00 0.00 0.00 32 1016.9
20260906203702 36 130 17.7 22.5 0.00 0.00 0.00 32 1016.9
20260906203601 36 142 17.7 25.7 0.00 0.00 0.00 33 1017.0
20260906203502 36 164 11.3 25.7 0.00 0.00 0.00 33 1017.0
20260906203401 36 158 9.7 30.6 0.00 0.00 0.00 33 1016.9
20260906203300 36 144 1.6 30.6 0.00 0.00 0.00 33 1016.9
20260906203201 36 145 4.8 30.6 0.00 0.00 0.00 33 1017.0
20260906203002 36 136 11.3 30.6 0.00 0.00 0.00 33 1017.0
20260906202901 36 114 12.9 30.6 0.00 0.00 0.00 33 1017.0
20260906202801 37 139 19.3 30.6 0.00 0.00 0.00 33 1017.0
20260906202502 37 122 17.7 24.1 0.00 0.00 0.00 33 1016.9
20260906202402 37 121 19.3 27.4 0.00 0.00 0.00 33 1016.9
20260906202306 37 113 24.1 27.4 0.00 0.00 0.00 33 1016.9
20260906202203 36 113 11.3 32.2 0.00 0.00 0.00 33 1016.9
20260906202103 36 119 11.3 32.2 0.00 0.00 0.00 33 1016.9
20260906202001 37 150 4.8 32.2 0.00 0.00 0.00 33 1017.0
20260906201902 37 150 6.4 32.2 0.00 0.00 0.00 33 1017.0
20260906201802 37 139 6.4 32.2 0.00 0.00 0.00 33 1017.1
20260906201702 37 130 6.4 32.2 0.00 0.00 0.00 33 1017.1
20260906201601 37 109 12.9 32.2 0.00 0.00 0.00 33 1017.1
20260906201501 37 128 16.1 32.2 0.00 0.00 0.00 33 1017.1
20260906201201 37 126 19.3 25.7 0.00 0.00 0.00 32 1017.1
20260906201100 37 128 16.1 25.7 0.00 0.00 0.00 32 1017.1
20260906201001 37 181 9.7 25.7 0.00 0.00 0.00 32 1017.1
20260906200901 37 165 8.0 25.7 0.00 0.00 0.00 32 1017.1
20260906200703 37 118 17.7 29.0 0.00 0.00 0.00 33 1017.0
20260906200602 37 124 11.3 29.0 0.00 0.00 0.00 32 1017.1
20260906200501 37 113 6.4 29.0 0.00 0.00 0.00 32 1017.1
20260906200321 37 136 11.3 29.0 0.00 0.00 0.00 33 1017.1
20260906200209 37 111 9.7 29.0 0.00 0.00 0.00 33 1017.2
20260906200132 37 119 14.5 29.0 0.00 0.00 0.00 33 1017.2
20260906200035 37 122 16.1 29.0 0.00 0.00 0.00 33 1017.3
20260906195904 37 119 17.7 29.0 0.00 0.00 0.00 33 1017.3
20260906195802 37 140 29.0 29.0 0.00 0.00 0.00 33 1017.3
20260906195704 37 137 19.3 29.0 0.00 0.00 0.00 33 1017.2
20260906195602 37 146 20.9 29.0 0.00 0.00 0.00 33 1017.3
20260906195502 37 148 16.1 29.0 0.00 0.00 0.00 33 1017.3
20260906195402 37 138 25.7 30.6 0.00 0.00 0.00 33 1017.3
20260906195306 37 142 19.3 30.6 0.00 0.00 0.00 34 1017.3
20260906195203 37 123 11.3 30.6 0.00 0.00 0.00 34 1017.3
20260906195103 36 127 17.7 30.6 0.00 0.00 0.00 34 1017.4
20260906195002 36 109 11.3 30.6 0.00 0.00 0.00 34 1017.3
20260906194900 36 96 16.1 30.6 0.00 0.00 0.00 34 1017.3
20260906194803 36 118 11.3 30.6 0.00 0.00 0.00 34 1017.4
20260906194702 36 132 6.4 30.6 0.00 0.00 0.00 34 1017.4
20260906194603 36 130 16.1 30.6 0.00 0.00 0.00 34 1017.3
20260906194404 37 123 16.1 27.4 0.00 0.00 0.00 33 1017.5
20260906194302 37 136 17.7 27.4 0.00 0.00 0.00 33 1017.5
20260906194202 37 117 20.9 20.9 0.00 0.00 0.00 33 1017.5
20260906194102 37 188 4.8 19.3 0.00 0.00 0.00 33 1017.5
20260906194002 37 198 6.4 19.3 0.00 0.00 0.00 33 1017.5
20260906193802 37 134 6.4 19.3 0.00 0.00 0.00 32 1017.6
20260906193703 37 144 8.0 19.3 0.00 0.00 0.00 33 1017.6
20260906193602 37 157 8.0 19.3 0.00 0.00 0.00 33 1017.6
20260906193402 37 169 16.1 17.7 0.00 0.00 0.00 33 1017.5
20260906193303 37 180 17.7 20.9 0.00 0.00 0.00 33 1017.5
20260906193203 37 113 19.3 20.9 0.00 0.00 0.00 33 1017.6
20260906193103 37 161 20.9 22.5 0.00 0.00 0.00 33 1017.6
20260906193003 37 152 12.9 22.5 0.00 0.00 0.00 33 1017.6
20260906192901 37 137 11.3 24.1 0.00 0.00 0.00 34 1017.6
20260906192801 37 83 3.2 27.4 0.00 0.00 0.00 34 1017.6
20260906192701 37 79 4.8 29.0 0.00 0.00 0.00 33 1017.6
20260906192601 37 100 11.3 29.0 0.00 0.00 0.00 33 1017.7
20260906192503 37 138 11.3 29.0 0.00 0.00 0.00 33 1017.7
20260906192402 37 119 14.5 29.0 0.00 0.00 0.00 33 1017.7
20260906192301 37 118 12.9 29.0 0.00 0.00 0.00 33 1017.7
20260906192202 37 152 8.0 29.0 0.00 0.00 0.00 33 1017.8
20260906192004 37 132 19.3 29.0 0.00 0.00 0.00 33 1017.8
20260906191901 37 117 29.0 29.0 0.00 0.00 0.00 32 1017.7
20260906191704 37 139 19.3 25.7 0.00 0.00 0.00 32 1017.7
20260906191502 37 194 11.3 25.7 0.00 0.00 0.00 32 1017.7
20260906191403 37 138 19.3 25.7 0.00 0.00 0.00 32 1017.7
20260906191303 37 141 17.7 25.7 0.00 0.00 0.00 33 1017.8
20260906191204 37 207 12.9 25.7 0.00 0.00 0.00 33 1017.7
20260906191004 37 207 6.4 25.7 0.00 0.00 0.00 33 1017.8
20260906190903 37 223 8.0 25.7 0.00 0.00 0.00 33 1017.7
20260906190702 37 175 20.9 27.4 0.00 0.00 0.00 33 1017.8
20260906190603 37 198 16.1 25.7 0.00 0.00 0.00 34 1017.8
20260906190501 36 192 9.7 22.5 0.00 0.00 0.00 34 1017.8
20260906190203 36 216 16.1 19.3 0.00 0.00 0.00 34 1017.9
20260906190006 36 184 4.8 24.1 0.00 0.00 0.00 34 1017.9
20260906185902 36 214 6.4 24.1 0.00 0.00 0.00 34 1017.9
20260906185801 36 196 4.8 24.1 0.00 0.00 0.00 34 1017.9
20260906185702 36 219 4.8 29.0 0.00 0.00 0.00 34 1017.9
20260906185602 36 175 4.8 29.0 0.00 0.00 0.00 34 1018.0
20260906185502 36 166 6.4 29.0 0.00 0.00 0.00 34 1018.0
20260906185402 37 140 16.1 29.0 0.00 0.00 0.00 34 1018.0
20260906185306 37 132 17.7 29.0 0.00 0.00 0.00 34 1018.0
20260906185204 37 163 17.7 29.0 0.00 0.00 0.00 34 1018.0
20260906185103 36 153 16.1 29.0 0.00 0.00 0.00 34 1018.0
20260906185003 36 188 9.7 29.0 0.00 0.00 0.00 34 1018.1
20260906184902 36 141 12.9 29.0 0.00 0.00 0.00 34 1018.0
20260906184803 36 143 19.3 29.0 0.00 0.00 0.00 35 1018.0
20260906184603 36 142 17.7 22.5 0.00 0.00 0.00 34 1018.1
20260906184503 36 114 16.1 22.5 0.00 0.00 0.00 35 1018.1
20260906184202 36 123 12.9 20.9 0.00 0.00 0.00 34 1018.1
20260906184102 36 128 17.7 20.9 0.00 0.00 0.00 34 1018.1
20260906184002 36 126 16.1 20.9 0.00 0.00 0.00 35 1018.2
20260906183902 36 153 4.8 14.5 0.00 0.00 0.00 35 1018.1
20260906183802 36 152 6.4 14.5 0.00 0.00 0.00 35 1018.2
20260906183702 36 157 12.9 16.1 0.00 0.00 0.00 35 1018.2
20260906183602 36 200 8.0 17.7 0.00 0.00 0.00 35 1018.2
20260906183502 36 203 1.6 22.5 0.00 0.00 0.00 34 1018.2
20260906183402 36 203 1.6 25.7 0.00 0.00 0.00 34 1018.3
20260906183003 36 195 4.8 25.7 0.00 0.00 0.00 34 1018.3
20260906182901 36 190 12.9 25.7 0.00 0.00 0.00 34 1018.4
20260906182801 36 166 11.3 25.7 0.00 0.00 0.00 34 1018.4
20260906182702 37 144 12.9 25.7 0.00 0.00 0.00 34 1018.4
20260906182603 37 138 16.1 27.4 0.00 0.00 0.00 34 1018.3
20260906182404 36 154 12.9 22.5 0.00 0.00 0.00 34 1018.4
20260906182305 36 155 19.3 22.5 0.00 0.00 0.00 34 1018.4
20260906182203 36 148 8.0 22.5 0.00 0.00 0.00 35 1018.4
20260906182103 36 168 16.1 19.3 0.00 0.00 0.00 34 1018.4
20260906182002 36 211 14.5 17.7 0.00 0.00 0.00 35 1018.4
20260906181902 36 189 8.0 17.7 0.00 0.00 0.00 34 1018.4
20260906181804 36 146 8.0 17.7 0.00 0.00 0.00 34 1018.4
20260906181502 36 194 3.2 24.1 0.00 0.00 0.00 35 1018.5
20260906181402 36 216 9.7 24.1 0.00 0.00 0.00 35 1018.5
20260906181301 36 142 4.8 24.1 0.00 0.00 0.00 35 1018.6
20260906181202 36 142 8.0 24.1 0.00 0.00 0.00 35 1018.6
20260906181103 36 141 8.0 24.1 0.00 0.00 0.00 35 1018.6
20260906181002 36 183 8.0 24.1 0.00 0.00 0.00 35 1018.6
20260906180904 36 164 9.7 24.1 0.00 0.00 0.00 36 1018.6
20260906180802 36 151 12.9 19.3 0.00 0.00 0.00 35 1018.6
20260906180703 36 140 8.0 19.3 0.00 0.00 0.00 35 1018.6
20260906180604 36 105 16.1 24.1 0.00 0.00 0.00 35 1018.7
20260906180504 36 131 14.5 24.1 0.00 0.00 0.00 36 1018.7
20260906180302 36 120 11.3 24.1 0.00 0.00 0.00 36 1018.7
20260906180201 36 128 11.3 24.1 0.00 0.00 0.00 36 1018.6
20260906180005 36 76 6.4 24.1 0.00 0.00 0.00 36 1018.7
20260906175903 36 97 6.4 27.4 0.00 0.00 0.00 35 1018.7
20260906175802 36 126 16.1 29.0 0.00 0.00 0.00 35 1018.8
20260906175704 36 154 11.3 29.0 0.00 0.00 0.00 35 1018.8
20260906175603 36 189 16.1 29.0 0.00 0.00 0.00 36 1018.8
20260906175503 36 185 16.1 29.0 0.00 0.00 0.00 35 1018.8
20260906175402 36 167 17.7 29.0 0.00 0.00 0.00 36 1018.8
20260906175203 36 186 14.5 29.0 0.00 0.00 0.00 36 1018.8
20260906175104 36 167 30.6 30.6 0.00 0.00 0.00 36 1018.9
20260906175001 35 164 11.3 29.0 0.00 0.00 0.00 36 1018.9
20260906174909 35 137 27.4 29.0 0.00 0.00 0.00 36 1018.9
20260906174802 35 141 25.7 29.0 0.00 0.00 0.00 37 1018.9
20260906174702 35 140 20.9 25.7 0.00 0.00 0.00 37 1018.9
20260906174502 35 98 11.3 25.7 0.00 0.00 0.00 37 1019.0
20260906174302 35 100 4.8 25.7 0.00 0.00 0.00 37 1019.0
20260906174203 35 98 3.2 25.7 0.00 0.00 0.00 36 1019.1
20260906174102 35 146 14.5 25.7 0.00 0.00 0.00 37 1019.2
20260906174002 35 140 17.7 25.7 0.00 0.00 0.00 37 1019.2
20260906173802 35 248 4.8 16.1 0.00 0.00 0.00 37 1019.1
20260906173703 35 225 8.0 24.1 0.00 0.00 0.00 37 1019.2
20260906173602 35 202 8.0 24.1 0.00 0.00 0.00 37 1019.2
20260906173402 35 163 12.9 24.1 0.00 0.00 0.00 37 1019.2
20260906173102 35 212 8.0 24.1 0.00 0.00 0.00 36 1019.3
20260906173002 35 157 12.9 24.1 0.00 0.00 0.00 36 1019.4
20260906172902 36 161 14.5 24.1 0.00 0.00 0.00 36 1019.3
20260906172803 36 159 19.3 24.1 0.00 0.00 0.00 36 1019.4
20260906172702 36 149 20.9 22.5 0.00 0.00 0.00 37 1019.4
20260906172601 35 195 4.8 22.5 0.00 0.00 0.00 37 1019.3
20260906172502 35 196 4.8 24.1 0.00 0.00 0.00 37 1019.2
20260906172402 35 196 3.2 24.1 0.00 0.00 0.00 37 1019.3
20260906172305 35 194 6.4 24.1 0.00 0.00 0.00 37 1019.3
20260906172202 35 200 6.4 24.1 0.00 0.00 0.00 36 1019.3
20260906172102 35 209 11.3 24.1 0.00 0.00 0.00 36 1019.4
20260906172002 35 155 12.9 24.1 0.00 0.00 0.00 36 1019.4
20260906171903 36 159 20.9 24.1 0.00 0.00 0.00 36 1019.4
20260906171803 35 163 16.1 24.1 0.00 0.00 0.00 37 1019.4
20260906171703 35 155 17.7 24.1 0.00 0.00 0.00 37 1019.3
20260906171603 35 205 11.3 19.3 0.00 0.00 0.00 37 1019.4
20260906171504 35 190 17.7 24.1 0.00 0.00 0.00 37 1019.4
20260906171405 35 189 14.5 22.5 0.00 0.00 0.00 37 1019.4
20260906171302 35 168 9.7 19.3 0.00 0.00 0.00 37 1019.5
20260906171203 35 154 9.7 19.3 0.00 0.00 0.00 37 1019.5
20260906171102 35 190 17.7 22.5 0.00 0.00 0.00 37 1019.4
20260906171002 35 150 14.5 19.3 0.00 0.00 0.00 38 1019.5
20260906170902 35 134 11.3 12.9 0.00 0.00 0.00 38 1019.5
20260906170802 35 142 4.8 14.5 0.00 0.00 0.00 38 1019.5
20260906170702 35 142 6.4 25.7 0.00 0.00 0.00 38 1019.5
20260906170602 35 118 1.6 25.7 0.00 0.00 0.00 38 1019.5
20260906170502 35 118 1.6 25.7 0.00 0.00 0.00 38 1019.5
20260906170402 35 118 3.2 25.7 0.00 0.00 0.00 38 1019.5
20260906170302 35 118 3.2 25.7 0.00 0.00 0.00 38 1019.5
20260906170202 35 117 3.2 25.7 0.00 0.00 0.00 38 1019.6
20260906170004 35 117 6.4 25.7 0.00 0.00 0.00 37 1019.7
20260906165803 35 121 11.3 22.5 0.00 0.00 0.00 37 1019.6
20260906165703 35 169 16.1 22.5 0.00 0.00 0.00 37 1019.7
20260906165603 35 183 16.1 22.5 0.00 0.00 0.00 37 1019.7
20260906165505 35 166 14.5 22.5 0.00 0.00 0.00 37 1019.7
20260906165403 35 192 14.5 22.5 0.00 0.00 0.00 38 1019.7
20260906165306 35 198 14.5 24.1 0.00 0.00 0.00 38 1019.7
20260906165203 35 193 20.9 22.5 0.00 0.00 0.00 38 1019.6
20260906165103 35 152 16.1 22.5 0.00 0.00 0.00 38 1019.7
20260906164901 35 182 14.5 22.5 0.00 0.00 0.00 39 1019.7
20260906164803 35 200 12.9 22.5 0.00 0.00 0.00 39 1019.7
20260906164702 35 155 3.2 19.3 0.00 0.00 0.00 39 1019.7
20260906164601 35 155 0.0 19.3 0.00 0.00 0.00 38 1019.7
20260906164502 35 155 4.8 19.3 0.00 0.00 0.00 38 1019.8
20260906164402 35 144 4.8 19.3 0.00 0.00 0.00 38 1019.8
20260906164303 35 195 4.8 19.3 0.00 0.00 0.00 38 1019.8
20260906164202 35 209 11.3 20.9 0.00 0.00 0.00 38 1019.8
20260906164103 35 210 3.2 17.7 0.00 0.00 0.00 38 1019.9
20260906164003 35 210 3.2 17.7 0.00 0.00 0.00 38 1019.8
20260906163901 35 198 11.3 19.3 0.00 0.00 0.00 38 1019.8
20260906163803 35 203 9.7 19.3 0.00 0.00 0.00 39 1019.8
20260906163702 35 267 6.4 19.3 0.00 0.00 0.00 39 1019.8
20260906163603 35 255 3.2 19.3 0.00 0.00 0.00 39 1019.8
20260906163402 35 257 6.4 19.3 0.00 0.00 0.00 38 1019.8
20260906163203 35 229 8.0 22.5 0.00 0.00 0.00 38 1019.8
20260906163102 35 215 16.1 22.5 0.00 0.00 0.00 38 1019.9
20260906163004 35 183 8.0 22.5 0.00 0.00 0.00 38 1019.9
20260906162802 35 174 12.9 22.5 0.00 0.00 0.00 38 1019.8
20260906162504 35 201 12.9 22.5 0.00 0.00 0.00 38 1019.8
20260906162401 35 186 14.5 20.9 0.00 0.00 0.00 39 1019.9
20260906162305 35 198 8.0 12.9 0.00 0.00 0.00 38 1019.9
20260906162101 35 167 12.9 17.7 0.00 0.00 0.00 39 1019.9
20260906162003 35 171 3.2 17.7 0.00 0.00 0.00 38 1019.9
20260906161904 35 172 3.2 17.7 0.00 0.00 0.00 39 1019.9
20260906161802 35 174 11.3 17.7 0.00 0.00 0.00 39 1019.9
20260906161600 34 197 3.2 17.7 0.00 0.00 0.00 38 1019.8
20260906161503 35 205 8.0 17.7 0.00 0.00 0.00 38 1019.8
20260906161402 35 212 9.7 17.7 0.00 0.00 0.00 39 1019.8
20260906161301 35 184 6.4 16.1 0.00 0.00 0.00 39 1019.8
20260906161204 35 178 9.7 16.1 0.00 0.00 0.00 39 1019.8
20260906161002 34 213 14.5 17.7 0.00 0.00 0.00 39 1019.8
20260906160903 34 196 9.7 16.1 0.00 0.00 0.00 39 1019.8
20260906160801 34 214 8.0 14.5 0.00 0.00 0.00 39 1019.8
20260906160701 34 253 4.8 14.5 0.00 0.00 0.00 39 1019.8
20260906160601 34 271 11.3 14.5 0.00 0.00 0.00 39 1019.8
20260906160501 34 277 1.6 14.5 0.00 0.00 0.00 39 1019.8
20260906160402 34 246 4.8 14.5 0.00 0.00 0.00 39 1019.8
20260906160301 34 220 12.9 14.5 0.00 0.00 0.00 39 1019.8
20260906160201 34 187 9.7 16.1 0.00 0.00 0.00 39 1019.7
20260906160004 34 134 11.3 12.9 0.00 0.00 0.00 39 1019.7
20260906155903 34 130 8.0 12.9 0.00 0.00 0.00 39 1019.9
20260906155703 34 144 6.4 12.9 0.00 0.00 0.00 39 1019.9
20260906155603 34 161 6.4 12.9 0.00 0.00 0.00 39 1019.8
20260906155504 34 160 3.2 12.9 0.00 0.00 0.00 39 1019.9
20260906155402 34 165 14.5 14.5 0.00 0.00 0.00 40 1019.9
20260906155306 34 266 6.4 12.9 0.00 0.00 0.00 40 1019.8
20260906155002 34 280 4.8 12.9 0.00 0.00 0.00 40 1019.8
20260906154902 34 232 8.0 16.1 0.00 0.00 0.00 40 1019.8
20260906154803 34 234 6.4 16.1 0.00 0.00 0.00 40 1019.8
20260906154703 34 219 6.4 16.1 0.00 0.00 0.00 40 1019.8
20260906154602 34 254 6.4 16.1 0.00 0.00 0.00 40 1019.7
20260906154502 34 255 1.6 16.1 0.00 0.00 0.00 40 1019.8
20260906154403 34 263 4.8 16.1 0.00 0.00 0.00 40 1019.8
20260906154302 34 151 1.6 16.1 0.00 0.00 0.00 39 1019.8
20260906154203 34 178 9.7 16.1 0.00 0.00 0.00 40 1019.8
20260906154002 34 245 8.0 14.5 0.00 0.00 0.00 40 1019.7
20260906153902 34 184 3.2 14.5 0.00 0.00 0.00 39 1019.7
20260906153806 34 186 4.8 14.5 0.00 0.00 0.00 39 1019.8
20260906153703 34 137 1.6 14.5 0.00 0.00 0.00 39 1019.8
20260906153603 34 144 12.9 14.5 0.00 0.00 0.00 39 1019.8
20260906153503 34 180 8.0 14.5 0.00 0.00 0.00 39 1019.8
20260906153403 34 198 4.8 14.5 0.00 0.00 0.00 39 1019.7
20260906153305 34 171 9.7 14.5 0.00 0.00 0.00 39 1019.7
20260906153203 34 194 11.3 16.1 0.00 0.00 0.00 39 1019.7
20260906153003 34 244 0.0 16.1 0.00 0.00 0.00 39 1019.7
20260906152903 34 244 1.6 16.1 0.00 0.00 0.00 39 1019.7
20260906152802 34 247 3.2 16.1 0.00 0.00 0.00 39 1019.7
20260906152704 34 195 4.8 16.1 0.00 0.00 0.00 40 1019.7
20260906152602 34 207 6.4 16.1 0.00 0.00 0.00 40 1019.7
20260906152503 34 263 16.1 16.1 0.00 0.00 0.00 40 1019.7
20260906152403 34 194 6.4 16.1 0.00 0.00 0.00 40 1019.6
20260906152306 34 237 0.0 16.1 0.00 0.00 0.00 40 1019.6
20260906152104 33 242 4.8 16.1 0.00 0.00 0.00 41 1019.6
20260906152003 33 254 4.8 16.1 0.00 0.00 0.00 41 1019.6
20260906151803 33 272 6.4 14.5 0.00 0.00 0.00 42 1019.6
20260906151703 33 275 3.2 14.5 0.00 0.00 0.00 41 1019.6
20260906151504 33 201 4.8 12.9 0.00 0.00 0.00 42 1019.5
20260906151401 33 195 0.0 12.9 0.00 0.00 0.00 42 1019.6
20260906151305 33 195 1.6 12.9 0.00 0.00 0.00 42 1019.5
20260906151203 33 198 6.4 12.9 0.00 0.00 0.00 42 1019.5
20260906151103 33 243 6.4 12.9 0.00 0.00 0.00 42 1019.5
20260906150904 33 233 4.8 12.9 0.00 0.00 0.00 43 1019.5
20260906150801 33 184 8.0 12.9 0.00 0.00 0.00 43 1019.5
20260906150703 33 195 8.0 12.9 0.00 0.00 0.00 44 1019.5
20260906150504 33 182 1.6 12.9 0.00 0.00 0.00 44 1019.5
20260906150404 33 182 0.0 12.9 0.00 0.00 0.00 43 1019.5
20260906150203 32 176 0.0 12.9 0.00 0.00 0.00 44 1019.5
20260906150006 32 200 3.2 12.9 0.00 0.00 0.00 44 1019.5
20260906145902 32 167 12.9 14.5 0.00 0.00 0.00 44 1019.5
20260906145802 32 187 0.0 11.3 0.00 0.00 0.00 44 1019.5
20260906145701 32 188 11.3 16.1 0.00 0.00 0.00 45 1019.5
20260906145602 32 169 3.2 16.1 0.00 0.00 0.00 45 1019.5
20260906145502 32 169 3.2 16.1 0.00 0.00 0.00 45 1019.5
20260906145302 32 167 8.0 16.1 0.00 0.00 0.00 45 1019.5
20260906145203 32 184 0.0 16.1 0.00 0.00 0.00 46 1019.5
20260906145102 32 184 1.6 16.1 0.00 0.00 0.00 46 1019.5
20260906145003 32 184 4.8 16.1 0.00 0.00 0.00 46 1019.5
20260906144902 32 163 8.0 16.1 0.00 0.00 0.00 46 1019.5
20260906144801 32 147 16.1 16.1 0.00 0.00 0.00 46 1019.5
20260906144713 32 160 11.3 11.3 0.00 0.00 0.00 47 1019.6
20260906144601 32 186 6.4 11.3 0.00 0.00 0.00 47 1019.6
20260906144501 32 177 9.7 11.3 0.00 0.00 0.00 46 1019.5
20260906144401 32 184 4.8 11.3 0.00 0.00 0.00 47 1019.6
20260906144303 32 201 8.0 11.3 0.00 0.00 0.00 47 1019.6
20260906144202 31 190 6.4 11.3 0.00 0.00 0.00 47 1019.6
20260906144103 31 184 11.3 12.9 0.00 0.00 0.00 48 1019.6
20260906144003 31 165 9.7 12.9 0.00 0.00 0.00 48 1019.6
20260906143802 31 177 6.4 12.9 0.00 0.00 0.00 48 1019.7
20260906143701 31 172 8.0 12.9 0.00 0.00 0.00 49 1019.6
20260906143501 31 148 4.8 14.5 0.00 0.00 0.00 49 1019.6
20260906143401 31 150 6.4 16.1 0.00 0.00 0.00 49 1019.6
20260906143303 31 153 6.4 16.1 0.00 0.00 0.00 50 1019.6
20260906143102 31 152 4.8 16.1 0.00 0.00 0.00 50 1019.7
20260906143002 31 151 4.8 16.1 0.00 0.00 0.00 51 1019.7
20260906142901 31 153 8.0 16.1 0.00 0.00 0.00 51 1019.7
20260906142802 31 129 4.8 16.1 0.00 0.00 0.00 51 1019.7
20260906142703 31 147 12.9 16.1 0.00 0.00 0.00 51 1019.7
20260906142602 30 152 12.9 16.1 0.00 0.00 0.00 52 1019.7
20260906142502 30 148 6.4 16.1 0.00 0.00 0.00 52 1019.7
20260906142403 30 146 12.9 12.9 0.00 0.00 0.00 52 1019.6
20260906142306 30 161 8.0 12.9 0.00 0.00 0.00 52 1019.6
20260906142201 30 159 9.7 12.9 0.00 0.00 0.00 53 1019.6
20260906142101 30 147 8.0 12.9 0.00 0.00 0.00 52 1019.7
20260906142003 30 183 12.9 14.5 0.00 0.00 0.00 53 1019.6
20260906141902 30 157 12.9 14.5 0.00 0.00 0.00 53 1019.7
20260906141803 30 162 6.4 14.5 0.00 0.00 0.00 53 1019.6
20260906141702 30 161 8.0 14.5 0.00 0.00 0.00 53 1019.6
20260906141602 30 140 6.4 14.5 0.00 0.00 0.00 54 1019.6
20260906141501 30 141 8.0 14.5 0.00 0.00 0.00 54 1019.6
20260906141402 30 144 8.0 14.5 0.00 0.00 0.00 54 1019.6
20260906141301 30 153 8.0 14.5 0.00 0.00 0.00 54 1019.6
20260906141203 30 150 9.7 14.5 0.00 0.00 0.00 54 1019.6
20260906141002 29 150 8.0 14.5 0.00 0.00 0.00 55 1019.7
20260906140901 29 143 8.0 14.5 0.00 0.00 0.00 55 1019.6
20260906140602 29 144 8.0 12.9 0.00 0.00 0.00 55 1019.6
20260906140402 29 149 6.4 14.5 0.00 0.00 0.00 56 1019.6
20260906140159 28 153 4.8 14.5 0.00 0.00 0.00 56 1019.6
20260906140001 28 153 8.0 14.5 0.00 0.00 0.00 56 1019.6
20260906135901 28 156 4.8 14.5 0.00 0.00 0.00 57 1019.5
20260906135801 28 155 9.7 14.5 0.00 0.00 0.00 57 1019.5
20260906135701 28 153 4.8 14.5 0.00 0.00 0.00 57 1019.5
20260906135603 28 146 8.0 12.9 0.00 0.00 0.00 57 1019.6
20260906135501 28 156 9.7 12.9 0.00 0.00 0.00 57 1019.5
20260906135400 28 172 9.7 11.3 0.00 0.00 0.00 57 1019.5
20260906135301 28 165 9.7 11.3 0.00 0.00 0.00 58 1019.5
20260906135200 28 167 8.0 11.3 0.00 0.00 0.00 58 1019.5
20260906135100 28 164 6.4 11.3 0.00 0.00 0.00 59 1019.5
20260906135001 28 150 6.4 11.3 0.00 0.00 0.00 59 1019.5
20260906134900 28 144 4.8 11.3 0.00 0.00 0.00 59 1019.5
20260906134801 27 140 11.3 11.3 0.00 0.00 0.00 59 1019.5
20260906134603 27 139 3.2 11.3 0.00 0.00 0.00 59 1019.4
20260906134500 27 140 4.8 11.3 0.00 0.00 0.00 60 1019.4
20260906134302 27 140 4.8 11.3 0.00 0.00 0.00 60 1019.5
20260906134202 27 140 6.4 11.3 0.00 0.00 0.00 60 1019.5
20260906134101 27 139 8.0 11.3 0.00 0.00 0.00 60 1019.5
20260906134002 27 136 4.8 11.3 0.00 0.00 0.00 60 1019.4
20260906133902 27 135 4.8 11.3 0.00 0.00 0.00 60 1019.4
20260906133801 27 135 4.8 11.3 0.00 0.00 0.00 60 1019.4
20260906133601 27 136 6.4 11.3 0.00 0.00 0.00 61 1019.4
20260906133502 27 134 4.8 8.0 0.00 0.00 0.00 61 1019.4
20260906133301 27 136 6.4 8.0 0.00 0.00 0.00 61 1019.4
20260906133202 27 135 6.4 8.0 0.00 0.00 0.00 61 1019.4
20260906133102 26 135 4.8 8.0 0.00 0.00 0.00 61 1019.4
20260906132902 26 109 4.8 9.7 0.00 0.00 0.00 62 1019.3
20260906132701 26 133 4.8 8.0 0.00 0.00 0.00 62 1019.4
20260906132500 26 133 6.4 8.0 0.00 0.00 0.00 62 1019.4
20260906132401 26 136 4.8 8.0 0.00 0.00 0.00 63 1019.4
20260906132300 26 146 6.4 8.0 0.00 0.00 0.00 63 1019.4
20260906132100 26 153 4.8 8.0 0.00 0.00 0.00 64 1019.4
20260906132001 25 154 4.8 8.0 0.00 0.00 0.00 64 1019.4
20260906131801 25 157 8.0 8.0 0.00 0.00 0.00 65 1019.3
20260906131700 25 158 3.2 8.0 0.00 0.00 0.00 65 1019.4
20260906131601 25 159 0.0 0.0 0.00 0.00 0.00 66 1019.4
20260906131500 25 159 0.0 0.0 0.00 0.00 0.00 66 1019.4
20260906131401 25 159 0.0 0.0 0.00 0.00 0.00 66 1019.5
20260906131300 25 159 0.0 0.0 0.00 0.00 0.00 67 1019.4
20260906131201 25 159 0.0 0.0 0.00 0.00 0.00 67 1019.4
20260906131102 25 159 0.0 0.0 0.00 0.00 0.00 68 1019.4
20260906131001 24 159 0.0 0.0 0.00 0.00 0.00 68 1019.4
20260906130902 24 159 0.0 0.0 0.00 0.00 0.00 68 1019.4
20260906130803 24 159 0.0 0.0 0.00 0.00 0.00 68 1019.4
20260906130701 23 159 0.0 0.0 0.00 0.00 0.00 68 1019.3
20260906130600 23 159 0.0 0.0 0.00 0.00 0.00 68 1019.4
20260906130502 23 159 0.0 0.0 0.00 0.00 0.00 68 1019.4
20260906130401 23 159 0.0 0.0 0.00 0.00 0.00 68 1019.4
20260906130301 23 159 0.0 0.0 0.00 0.00 0.00 68 1019.4
20260906130202 23 159 0.0 0.0 0.00 0.00 0.00 68 1019.3
20260906130001 23 159 0.0 0.0 0.00 0.00 0.00 68 1019.2
20260906125901 23 159 0.0 0.0 0.00 0.00 0.00 68 1019.2
20260906125801 23 159 0.0 0.0 0.00 0.00 0.00 68 1019.2
20260906125702 23 159 0.0 0.0 0.00 0.00 0.00 67 1019.2
20260906125601 23 159 0.0 0.0 0.00 0.00 0.00 67 1019.2
20260906125501 23 160 0.0 0.0 0.00 0.00 0.00 67 1019.2
20260906125401 23 160 0.0 0.0 0.00 0.00 0.00 67 1019.2
20260906125306 22 160 0.0 0.0 0.00 0.00 0.00 67 1019.2
20260906125201 22 159 0.0 0.0 0.00 0.00 0.00 67 1019.2
20260906125103 22 160 0.0 0.0 0.00 0.00 0.00 67 1019.2
20260906125001 22 160 0.0 0.0 0.00 0.00 0.00 67 1019.2
20260906124902 22 160 0.0 0.0 0.00 0.00 0.00 67 1019.2
20260906124803 22 160 0.0 0.0 0.00 0.00 0.00 67 1019.2
20260906124701 22 160 0.0 0.0 0.00 0.00 0.00 67 1019.1
20260906124602 22 160 0.0 0.0 0.00 0.00 0.00 67 1019.1
20260906124501 22 160 0.0 0.0 0.00 0.00 0.00 67 1019.1
20260906124401 22 160 0.0 0.0 0.00 0.00 0.00 66 1019.1
20260906124303 22 160 0.0 0.0 0.00 0.00 0.00 66 1019.1
20260906124201 22 160 0.0 0.0 0.00 0.00 0.00 66 1019.1
20260906124001 23 160 0.0 0.0 0.00 0.00 0.00 66 1019.0
20260906123903 23 160 0.0 0.0 0.00 0.00 0.00 66 1019.0
20260906123803 23 160 0.0 0.0 0.00 0.00 0.00 66 1019.0
20260906123501 23 160 0.0 0.0 0.00 0.00 0.00 65 1018.9
20260906123401 23 160 0.0 0.0 0.00 0.00 0.00 65 1019.0
20260906123301 23 160 0.0 0.0 0.00 0.00 0.00 66 1019.0
20260906123201 23 159 0.0 0.0 0.00 0.00 0.00 66 1019.0
20260906123001 23 159 0.0 0.0 0.00 0.00 0.00 66 1019.0
20260906122904 23 159 0.0 0.0 0.00 0.00 0.00 66 1018.9
20260906122801 23 159 0.0 0.0 0.00 0.00 0.00 66 1018.9
20260906122701 23 159 0.0 0.0 0.00 0.00 0.00 67 1018.8
20260906122603 23 159 0.0 0.0 0.00 0.00 0.00 68 1018.9
20260906122501 23 159 0.0 0.0 0.00 0.00 0.00 69 1018.8
20260906122401 23 159 0.0 0.0 0.00 0.00 0.00 69 1018.8
20260906122301 23 159 0.0 0.0 0.00 0.00 0.00 69 1018.8
20260906122200 23 159 0.0 0.0 0.00 0.00 0.00 69 1018.9
20260906122101 23 159 0.0 0.0 0.00 0.00 0.00 69 1018.8
20260906122002 23 159 0.0 0.0 0.00 0.00 0.00 68 1018.8
20260906121901 23 159 0.0 0.0 0.00 0.00 0.00 68 1018.8
20260906121702 23 159 0.0 0.0 0.00 0.00 0.00 68 1018.8
20260906121600 23 159 0.0 0.0 0.00 0.00 0.00 68 1018.9
20260906121501 23 159 0.0 0.0 0.00 0.00 0.00 68 1018.9
20260906121401 23 159 0.0 0.0 0.00 0.00 0.00 68 1018.8
20260906121300 23 159 0.0 0.0 0.00 0.00 0.00 68 1018.8
20260906121203 23 159 0.0 0.0 0.00 0.00 0.00 68 1018.8
20260906121102 23 159 0.0 0.0 0.00 0.00 0.00 68 1018.8
20260906120902 23 159 0.0 0.0 0.00 0.00 0.00 67 1018.7
20260906120802 23 159 0.0 0.0 0.00 0.00 0.00 66 1018.7
20260906120701 23 159 0.0 0.0 0.00 0.00 0.00 66 1018.7
20260906120602 23 159 0.0 0.0 0.00 0.00 0.00 66 1018.7
20260906120400 23 159 0.0 0.0 0.00 0.00 0.00 65 1018.7
20260906120300 23 159 0.0 0.0 0.00 0.00 0.00 65 1018.7
20260906120202 23 159 0.0 0.0 0.00 0.00 0.00 64 1018.8
20260906120104 23 159 0.0 0.0 0.00 0.00 0.00 64 1018.7
20260906115903 23 159 0.0 0.0 0.00 0.00 0.00 64 1018.7
20260906115803 23 159 0.0 0.0 0.00 0.00 0.00 64 1018.6
20260906115704 23 159 0.0 0.0 0.00 0.00 0.00 64 1018.6
20260906115603 23 160 0.0 0.0 0.00 0.00 0.00 64 1018.6
20260906115503 23 159 0.0 0.0 0.00 0.00 0.00 64 1018.6
20260906115402 23 160 0.0 0.0 0.00 0.00 0.00 64 1018.6
20260906115306 23 160 0.0 0.0 0.00 0.00 0.00 63 1018.6
20260906115202 23 160 0.0 0.0 0.00 0.00 0.00 63 1018.6
20260906115101 23 160 0.0 0.0 0.00 0.00 0.00 63 1018.6
20260906114903 23 160 0.0 0.0 0.00 0.00 0.00 62 1018.6
20260906114802 24 160 0.0 0.0 0.00 0.00 0.00 62 1018.6
20260906114702 24 160 0.0 0.0 0.00 0.00 0.00 62 1018.5
20260906114602 24 160 0.0 0.0 0.00 0.00 0.00 62 1018.5
20260906114502 24 160 0.0 0.0 0.00 0.00 0.00 61 1018.5
20260906114402 24 160 0.0 0.0 0.00 0.00 0.00 61 1018.5
20260906114301 25 160 0.0 0.0 0.00 0.00 0.00 61 1018.5
20260906114202 25 159 0.0 0.0 0.00 0.00 0.00 61 1018.4
20260906114103 25 159 0.0 0.0 0.00 0.00 0.00 61 1018.5
20260906114001 25 159 0.0 0.0 0.00 0.00 0.00 61 1018.4
20260906113903 25 160 0.0 0.0 0.00 0.00 0.00 61 1018.4
20260906113704 25 159 0.0 0.0 0.00 0.00 0.00 64 1018.4
20260906113603 25 159 0.0 0.0 0.00 0.00 0.00 64 1018.3
20260906113502 25 159 0.0 0.0 0.00 0.00 0.00 64 1018.3
20260906113402 25 159 0.0 0.0 0.00 0.00 0.00 64 1018.3
20260906113202 25 159 0.0 0.0 0.00 0.00 0.00 64 1018.3
20260906113102 25 159 0.0 0.0 0.00 0.00 0.00 64 1018.3
20260906113002 25 159 0.0 0.0 0.00 0.00 0.00 64 1018.2
20260906112801 25 159 0.0 0.0 0.00 0.00 0.00 64 1018.2
20260906112601 25 159 0.0 0.0 0.00 0.00 0.00 64 1018.2
20260906112502 25 159 0.0 0.0 0.00 0.00 0.00 64 1018.2
20260906112306 25 159 0.0 0.0 0.00 0.00 0.00 65 1018.1
20260906112201 25 159 0.0 0.0 0.00 0.00 0.00 65 1018.1
20260906112101 25 159 0.0 0.0 0.00 0.00 0.00 65 1018.1
20260906112002 25 159 0.0 0.0 0.00 0.00 0.00 65 1018.1
20260906111901 25 159 0.0 0.0 0.00 0.00 0.00 65 1018.1
20260906111801 25 159 0.0 0.0 0.00 0.00 0.00 65 1018.1
20260906111502 24 159 0.0 0.0 0.00 0.00 0.00 66 1018.1
20260906111302 24 159 0.0 0.0 0.00 0.00 0.00 65 1018.1
20260906111201 24 159 0.0 0.0 0.00 0.00 0.00 65 1018.1
20260906111001 24 159 0.0 0.0 0.00 0.00 0.00 65 1018.1
20260906110902 24 159 0.0 0.0 0.00 0.00 0.00 65 1018.2
20260906110800 24 159 0.0 0.0 0.00 0.00 0.00 65 1018.1
20260906110701 24 160 0.0 0.0 0.00 0.00 0.00 65 1018.2
20260906110602 24 159 0.0 3.2 0.00 0.00 0.00 65 1018.2
20260906110502 24 160 0.0 4.8 0.00 0.00 0.00 64 1018.1
20260906110424 24 160 0.0 4.8 0.00 0.00 0.00 64 1018.2
20260906110237 24 160 0.0 4.8 0.00 0.00 0.00 64 1018.2
20260906105802 24 160 0.0 4.8 0.00 0.00 0.00 63 1018.1
20260906105703 25 160 3.2 4.8 0.00 0.00 0.00 62 1018.1
20260906105602 25 160 6.4 6.4 0.00 0.00 0.00 62 1018.1
20260906105503 25 160 0.0 3.2 0.00 0.00 0.00 62 1018.1
20260906105402 25 160 0.0 3.2 0.00 0.00 0.00 61 1018.0
20260906105201 25 160 0.0 4.8 0.00 0.00 0.00 61 1018.0
20260906105101 25 160 0.0 4.8 0.00 0.00 0.00 61 1018.0
20260906104903 25 160 0.0 4.8 0.00 0.00 0.00 62 1017.9
20260906104802 25 160 0.0 4.8 0.00 0.00 0.00 62 1017.9
20260906104701 25 160 0.0 4.8 0.00 0.00 0.00 63 1017.9
20260906104601 25 160 1.6 4.8 0.00 0.00 0.00 63 1017.8
20260906104500 25 160 3.2 6.4 0.00 0.00 0.00 63 1017.8
20260906104300 25 160 6.4 6.4 0.00 0.00 0.00 63 1017.8
20260906104202 25 160 3.2 6.4 0.00 0.00 0.00 63 1017.8
20260906104101 25 159 3.2 4.8 0.00 0.00 0.00 63 1017.8
20260906103902 25 159 1.6 6.4 0.00 0.00 0.00 63 1017.7
20260906103802 25 159 3.2 6.4 0.00 0.00 0.00 63 1017.7
20260906103702 25 159 3.2 6.4 0.00 0.00 0.00 62 1017.7
20260906103603 25 159 1.6 4.8 0.00 0.00 0.00 62 1017.7
20260906103501 25 159 0.0 4.8 0.00 0.00 0.00 61 1017.6
20260906103403 25 159 0.0 8.0 0.00 0.00 0.00 60 1017.7
20260906103302 25 159 1.6 8.0 0.00 0.00 0.00 60 1017.6
20260906103203 25 159 3.2 9.7 0.00 0.00 0.00 60 1017.6
20260906103101 25 159 1.6 9.7 0.00 0.00 0.00 60 1017.7
20260906103003 25 159 1.6 9.7 0.00 0.00 0.00 61 1017.7
20260906102901 25 159 3.2 9.7 0.00 0.00 0.00 61 1017.7
20260906102701 25 159 3.2 9.7 0.00 0.00 0.00 61 1017.7
20260906102602 25 159 8.0 9.7 0.00 0.00 0.00 62 1017.7
20260906102501 25 158 4.8 9.7 0.00 0.00 0.00 62 1017.7
20260906102306 25 157 8.0 9.7 0.00 0.00 0.00 62 1017.6
20260906102202 25 156 4.8 9.7 0.00 0.00 0.00 61 1017.6
20260906102101 25 156 4.8 9.7 0.00 0.00 0.00 61 1017.6
20260906101902 25 156 4.8 11.3 0.00 0.00 0.00 61 1017.6
20260906101802 25 156 3.2 11.3 0.00 0.00 0.00 61 1017.6
20260906101701 25 155 3.2 11.3 0.00 0.00 0.00 61 1017.6
20260906101602 25 155 1.6 11.3 0.00 0.00 0.00 61 1017.6
20260906101502 25 155 4.8 11.3 0.00 0.00 0.00 60 1017.6
20260906101403 25 154 4.8 11.3 0.00 0.00 0.00 60 1017.6
20260906101301 26 153 6.4 11.3 0.00 0.00 0.00 60 1017.6
20260906101103 26 150 8.0 11.3 0.00 0.00 0.00 60 1017.6
20260906100959 26 147 8.0 11.3 0.00 0.00 0.00 60 1017.6
20260906100903 26 143 9.7 11.3 0.00 0.00 0.00 60 1017.6
20260906100803 26 141 11.3 11.3 0.00 0.00 0.00 60 1017.6
20260906100701 26 153 11.3 11.3 0.00 0.00 0.00 60 1017.6
20260906100601 26 156 8.0 9.7 0.00 0.00 0.00 60 1017.6
20260906100502 26 157 4.8 8.0 0.00 0.00 0.00 60 1017.6
20260906100402 26 158 4.8 8.0 0.00 0.00 0.00 59 1017.5
20260906100301 26 157 4.8 8.0 0.00 0.00 0.00 59 1017.6
20260906100200 26 158 8.0 8.0 0.00 0.00 0.00 59 1017.6
20260906100004 26 158 4.8 8.0 0.00 0.00 0.00 59 1017.6
20260906095901 26 158 4.8 8.0 0.00 0.00 0.00 59 1017.6
20260906095801 26 158 4.8 11.3 0.00 0.00 0.00 59 1017.6
20260906095701 26 158 3.2 11.3 0.00 0.00 0.00 59 1017.6
20260906095602 26 158 4.8 11.3 0.00 0.00 0.00 59 1017.6
20260906095501 26 158 8.0 11.3 0.00 0.00 0.00 59 1017.6
20260906095402 26 157 4.8 11.3 0.00 0.00 0.00 59 1017.6
20260906095101 26 157 8.0 11.3 0.00 0.00 0.00 58 1017.6
20260906095002 26 157 9.7 11.3 0.00 0.00 0.00 58 1017.6
20260906094701 26 161 6.4 9.7 0.00 0.00 0.00 58 1017.7
20260906094502 26 161 6.4 9.7 0.00 0.00 0.00 58 1017.7
20260906094401 26 161 6.4 9.7 0.00 0.00 0.00 58 1017.7
20260906094202 26 161 6.4 11.3 0.00 0.00 0.00 58 1017.8
20260906094101 26 160 6.4 11.3 0.00 0.00 0.00 58 1017.7
20260906094001 26 160 6.4 11.3 0.00 0.00 0.00 58 1017.7
20260906093902 26 159 6.4 11.3 0.00 0.00 0.00 58 1017.7
20260906093700 26 160 8.0 11.3 0.00 0.00 0.00 57 1017.8
20260906093601 26 159 8.0 11.3 0.00 0.00 0.00 57 1017.7
20260906093301 26 157 8.0 11.3 0.00 0.00 0.00 57 1017.8
20260906093201 26 156 9.7 11.3 0.00 0.00 0.00 57 1017.8
20260906093101 26 155 6.4 11.3 0.00 0.00 0.00 57 1017.8
20260906093003 26 155 11.3 11.3 0.00 0.00 0.00 57 1017.8
20260906092902 26 155 6.4 11.3 0.00 0.00 0.00 57 1017.8
20260906092802 26 154 6.4 11.3 0.00 0.00 0.00 57 1017.8
20260906092701 26 154 6.4 11.3 0.00 0.00 0.00 57 1017.8
20260906092601 26 153 4.8 11.3 0.00 0.00 0.00 56 1017.8
20260906092502 26 153 6.4 11.3 0.00 0.00 0.00 56 1017.8
20260906092403 26 153 6.4 11.3 0.00 0.00 0.00 56 1017.7
20260906092301 26 153 6.4 11.3 0.00 0.00 0.00 56 1017.7
20260906092201 26 153 4.8 11.3 0.00 0.00 0.00 56 1017.7
20260906092100 26 153 4.8 11.3 0.00 0.00 0.00 56 1017.8
20260906092002 26 153 4.8 11.3 0.00 0.00 0.00 56 1017.7
20260906091902 26 153 4.8 11.3 0.00 0.00 0.00 56 1017.7
20260906091801 26 153 6.4 11.3 0.00 0.00 0.00 56 1017.8
20260906091701 26 153 8.0 11.3 0.00 0.00 0.00 56 1017.8
20260906091502 26 157 8.0 11.3 0.00 0.00 0.00 56 1017.8
20260906091401 26 158 8.0 11.3 0.00 0.00 0.00 56 1017.8
20260906091302 26 161 8.0 11.3 0.00 0.00 0.00 56 1017.8
20260906091200 26 161 8.0 11.3 0.00 0.00 0.00 56 1017.8
20260906091002 26 166 9.7 9.7 0.00 0.00 0.00 56 1017.8
20260906090901 26 167 9.7 9.7 0.00 0.00 0.00 56 1017.8
20260906090802 26 178 4.8 8.0 0.00 0.00 0.00 56 1017.8
20260906090701 26 181 4.8 6.4 0.00 0.00 0.00 56 1017.8
20260906090600 26 182 4.8 6.4 0.00 0.00 0.00 56 1017.8
20260906090501 26 182 1.6 6.4 0.00 0.00 0.00 56 1017.8
20260906090401 26 182 4.8 6.4 0.00 0.00 0.00 56 1017.8
20260906090301 26 183 4.8 6.4 0.00 0.00 0.00 56 1017.8
20260906090201 26 183 4.8 6.4 0.00 0.00 0.00 56 1017.8
20260906090004 26 184 4.8 6.4 0.00 0.00 0.00 55 1017.7
20260906085902 26 184 3.2 6.4 0.00 0.00 0.00 55 1017.8
20260906085802 26 184 4.8 6.4 0.00 0.00 0.00 55 1017.8
20260906085701 27 184 4.8 6.4 0.00 0.00 0.00 55 1017.8
20260906085501 27 186 3.2 6.4 0.00 0.00 0.00 55 1017.8
20260906085402 27 186 4.8 6.4 0.00 0.00 0.00 55 1017.8
20260906085301 27 187 4.8 6.4 0.00 0.00 0.00 55 1017.8
20260906085202 27 187 3.2 8.0 0.00 0.00 0.00 55 1017.8
20260906085001 27 190 4.8 9.7 0.00 0.00 0.00 54 1017.7
20260906084901 27 190 4.8 9.7 0.00 0.00 0.00 54 1017.8
20260906084600 27 191 4.8 9.7 0.00 0.00 0.00 54 1017.7
20260906084501 27 192 4.8 9.7 0.00 0.00 0.00 54 1017.7
20260906084259 27 194 6.4 9.7 0.00 0.00 0.00 55 1017.7
20260906084028 27 198 8.0 9.7 0.00 0.00 0.00 55 1017.8
20260906083602 27 188 4.8 4.8 0.00 0.00 0.00 54 1017.8
20260906083502 27 187 3.2 4.8 0.00 0.00 0.00 54 1017.7
20260906083401 27 187 0.0 6.4 0.00 0.00 0.00 54 1017.7
20260906083302 27 187 1.6 8.0 0.00 0.00 0.00 54 1017.7
20260906083212 27 187 1.6 8.0 0.00 0.00 0.00 54 1017.7
20260906083103 27 187 3.2 8.0 0.00 0.00 0.00 54 1017.7
20260906083002 27 187 1.6 8.0 0.00 0.00 0.00 54 1017.7
20260906082803 27 187 1.6 8.0 0.00 0.00 0.00 54 1017.7
20260906082601 27 187 4.8 8.0 0.00 0.00 0.00 54 1017.7
20260906082503 27 186 4.8 8.0 0.00 0.00 0.00 53 1017.7
20260906082400 27 182 3.2 6.4 0.00 0.00 0.00 53 1017.7
20260906082305 27 180 6.4 6.4 0.00 0.00 0.00 53 1017.7
20260906082202 27 180 3.2 8.0 0.00 0.00 0.00 53 1017.7
20260906082102 27 180 3.2 8.0 0.00 0.00 0.00 53 1017.7
20260906081901 27 180 4.8 8.0 0.00 0.00 0.00 53 1017.6
20260906081801 27 180 3.2 8.0 0.00 0.00 0.00 53 1017.6
20260906081700 27 180 4.8 8.0 0.00 0.00 0.00 53 1017.6
20260906081602 27 180 4.8 8.0 0.00 0.00 0.00 53 1017.7
20260906081401 28 178 4.8 11.3 0.00 0.00 0.00 52 1017.7
20260906081301 28 178 4.8 11.3 0.00 0.00 0.00 52 1017.6
20260906081201 28 178 4.8 11.3 0.00 0.00 0.00 52 1017.7
20260906081101 28 178 6.4 11.3 0.00 0.00 0.00 52 1017.7
20260906081001 28 177 6.4 11.3 0.00 0.00 0.00 52 1017.7
20260906080801 28 175 9.7 11.3 0.00 0.00 0.00 52 1017.7
20260906080702 28 178 6.4 11.3 0.00 0.00 0.00 52 1017.7
20260906080501 28 180 9.7 12.9 0.00 0.00 0.00 52 1017.7
20260906080400 28 186 6.4 12.9 0.00 0.00 0.00 53 1017.7
20260906080301 28 175 9.7 12.9 0.00 0.00 0.00 53 1017.6
20260906080202 28 183 9.7 12.9 0.00 0.00 0.00 53 1017.7
20260906080000 27 185 8.0 12.9 0.00 0.00 0.00 53 1017.7
20260906075900 27 175 6.4 12.9 0.00 0.00 0.00 53 1017.7
20260906075759 27 177 11.3 12.9 0.00 0.00 0.00 53 1017.7
20260906075700 27 181 6.4 11.3 0.00 0.00 0.00 53 1017.7
20260906075601 27 183 8.0 11.3 0.00 0.00 0.00 53 1017.6
20260906075501 27 188 9.7 11.3 0.00 0.00 0.00 53 1017.6
20260906075400 27 180 4.8 8.0 0.00 0.00 0.00 53 1017.6
20260906075305 27 180 8.0 8.0 0.00 0.00 0.00 53 1017.6
20260906075200 27 179 6.4 8.0 0.00 0.00 0.00 53 1017.6
20260906075100 27 179 6.4 8.0 0.00 0.00 0.00 52 1017.5
20260906075001 27 177 6.4 8.0 0.00 0.00 0.00 52 1017.5
20260906074900 28 178 6.4 8.0 0.00 0.00 0.00 52 1017.5
20260906074701 28 173 8.0 11.3 0.00 0.00 0.00 52 1017.5
20260906074600 28 171 6.4 11.3 0.00 0.00 0.00 52 1017.5
20260906074500 28 173 8.0 11.3 0.00 0.00 0.00 52 1017.6
20260906074400 28 171 8.0 11.3 0.00 0.00 0.00 52 1017.5
20260906074300 28 171 8.0 11.3 0.00 0.00 0.00 52 1017.6
20260906074202 28 168 8.0 11.3 0.00 0.00 0.00 52 1017.6
20260906074100 28 167 8.0 11.3 0.00 0.00 0.00 52 1017.5
20260906074000 28 166 8.0 11.3 0.00 0.00 0.00 52 1017.5
20260906073859 28 163 6.4 11.3 0.00 0.00 0.00 52 1017.5
20260906073759 28 163 8.0 11.3 0.00 0.00 0.00 52 1017.6
20260906073702 28 164 11.3 11.3 0.00 0.00 0.00 52 1017.5
20260906073601 28 162 8.0 11.3 0.00 0.00 0.00 52 1017.5
20260906073401 28 161 11.3 14.5 0.00 0.00 0.00 51 1017.5
20260906073302 28 161 8.0 14.5 0.00 0.00 0.00 52 1017.5
20260906073200 28 161 9.7 14.5 0.00 0.00 0.00 51 1017.5
20260906073059 28 163 8.0 14.5 0.00 0.00 0.00 51 1017.6
20260906073000 28 163 8.0 14.5 0.00 0.00 0.00 51 1017.6
20260906072901 28 167 8.0 14.5 0.00 0.00 0.00 51 1017.6
20260906072800 28 161 8.0 14.5 0.00 0.00 0.00 51 1017.6
20260906072559 28 160 9.7 14.5 0.00 0.00 0.00 51 1017.6
20260906072500 28 162 9.7 14.5 0.00 0.00 0.00 51 1017.6
20260906072400 28 157 9.7 14.5 0.00 0.00 0.00 51 1017.6
20260906072300 28 156 11.3 14.5 0.00 0.00 0.00 51 1017.6
20260906072200 28 155 9.7 12.9 0.00 0.00 0.00 51 1017.6
20260906072101 28 155 11.3 12.9 0.00 0.00 0.00 51 1017.6
20260906072001 28 154 9.7 12.9 0.00 0.00 0.00 51 1017.6
20260906071900 28 153 8.0 12.9 0.00 0.00 0.00 51 1017.6
20260906071800 28 152 6.4 12.9 0.00 0.00 0.00 51 1017.6
20260906071601 28 151 6.4 12.9 0.00 0.00 0.00 51 1017.7
20260906071500 28 151 9.7 11.3 0.00 0.00 0.00 50 1017.6
20260906071402 28 155 4.8 11.3 0.00 0.00 0.00 50 1017.6
20260906071300 28 155 6.4 11.3 0.00 0.00 0.00 50 1017.6
20260906071200 28 155 9.7 11.3 0.00 0.00 0.00 50 1017.6
20260906070959 28 150 6.4 14.5 0.00 0.00 0.00 50 1017.6
20260906070900 28 148 6.4 14.5 0.00 0.00 0.00 50 1017.7
20260906070700 28 148 4.8 14.5 0.00 0.00 0.00 50 1017.7
20260906070617 28 148 6.4 14.5 0.00 0.00 0.00 50 1017.7
20260906070525 28 148 4.8 14.5 0.00 0.00 0.00 50 1017.7
20260906070319 28 147 6.4 14.5 0.00 0.00 0.00 50 1017.8
20260906070100 28 141 8.0 12.9 0.00 0.00 0.00 50 1017.7
20260906065900 28 139 11.3 12.9 0.00 0.00 0.00 50 1017.7
20260906065800 28 136 6.4 12.9 0.00 0.00 0.00 49 1017.7
20260906065700 29 132 11.3 12.9 0.00 0.00 0.00 49 1017.8
20260906065559 29 131 8.0 14.5 0.00 0.00 0.00 49 1017.7
20260906065503 29 134 6.4 16.1 0.00 0.00 0.00 49 1017.7
20260906065301 29 134 12.9 16.1 0.00 0.00 0.00 49 1017.7
20260906065159 29 140 8.0 16.1 0.00 0.00 0.00 49 1017.8
20260906065100 29 141 6.4 16.1 0.00 0.00 0.00 49 1017.8
20260906065000 29 138 4.8 16.1 0.00 0.00 0.00 49 1017.8
20260906064900 29 138 6.4 16.1 0.00 0.00 0.00 49 1017.8
20260906064759 29 138 6.4 16.1 0.00 0.00 0.00 49 1017.8
20260906064701 29 136 8.0 16.1 0.00 0.00 0.00 49 1017.8
20260906064600 29 140 4.8 16.1 0.00 0.00 0.00 49 1017.7
20260906064500 29 134 8.0 16.1 0.00 0.00 0.00 49 1017.8
20260906064401 29 138 11.3 16.1 0.00 0.00 0.00 49 1017.7
20260906064300 29 142 12.9 16.1 0.00 0.00 0.00 49 1017.8
20260906064200 29 146 8.0 16.1 0.00 0.00 0.00 49 1017.8
20260906064101 29 146 8.0 16.1 0.00 0.00 0.00 49 1017.8
20260906064000 29 145 8.0 16.1 0.00 0.00 0.00 49 1017.7
20260906063801 29 145 6.4 16.1 0.00 0.00 0.00 49 1017.7
20260906063701 29 145 8.0 16.1 0.00 0.00 0.00 49 1017.7
20260906063600 29 147 8.0 16.1 0.00 0.00 0.00 49 1017.7
20260906063501 29 153 6.4 16.1 0.00 0.00 0.00 49 1017.7
20260906063300 29 154 9.7 16.1 0.00 0.00 0.00 49 1017.7
20260906063159 29 144 12.9 16.1 0.00 0.00 0.00 49 1017.6
20260906063102 29 156 9.7 17.7 0.00 0.00 0.00 49 1017.7
20260906063001 29 155 12.9 17.7 0.00 0.00 0.00 48 1017.7
20260906062900 29 154 11.3 17.7 0.00 0.00 0.00 48 1017.6
20260906062800 29 159 9.7 19.3 0.00 0.00 0.00 48 1017.6
20260906062700 29 155 6.4 19.3 0.00 0.00 0.00 48 1017.6
20260906062559 30 156 12.9 19.3 0.00 0.00 0.00 48 1017.6
20260906062500 30 155 12.9 19.3 0.00 0.00 0.00 48 1017.6
20260906062301 30 157 12.9 19.3 0.00 0.00 0.00 48 1017.6
20260906062100 30 158 9.7 19.3 0.00 0.00 0.00 48 1017.5
20260906062000 30 153 17.7 19.3 0.00 0.00 0.00 48 1017.5
20260906061700 30 148 9.7 19.3 0.00 0.00 0.00 49 1017.5
20260906061600 30 151 19.3 19.3 0.00 0.00 0.00 48 1017.5
20260906061400 30 152 16.1 20.9 0.00 0.00 0.00 49 1017.5
20260906061300 30 148 14.5 20.9 0.00 0.00 0.00 49 1017.5
20260906061201 30 154 11.3 20.9 0.00 0.00 0.00 49 1017.5
20260906061102 29 154 11.3 20.9 0.00 0.00 0.00 49 1017.5
20260906061001 29 153 12.9 20.9 0.00 0.00 0.00 49 1017.5
20260906060901 29 141 16.1 20.9 0.00 0.00 0.00 49 1017.5
20260906060801 29 153 14.5 20.9 0.00 0.00 0.00 49 1017.5
20260906060701 29 151 14.5 20.9 0.00 0.00 0.00 49 1017.5
20260906060601 29 144 9.7 20.9 0.00 0.00 0.00 49 1017.5
20260906060502 29 143 17.7 19.3 0.00 0.00 0.00 50 1017.5
20260906060402 29 149 17.7 19.3 0.00 0.00 0.00 50 1017.5
20260906060302 29 147 14.5 19.3 0.00 0.00 0.00 50 1017.5
20260906060201 29 143 14.5 17.7 0.00 0.00 0.00 50 1017.5
20260906055902 29 150 16.1 17.7 0.00 0.00 0.00 50 1017.5
20260906055802 29 132 16.1 17.7 0.00 0.00 0.00 49 1017.5
20260906055702 29 139 14.5 17.7 0.00 0.00 0.00 49 1017.5
20260906055602 29 128 14.5 16.1 0.00 0.00 0.00 49 1017.5
20260906055502 29 136 12.9 16.1 0.00 0.00 0.00 49 1017.5
20260906055402 29 144 9.7 16.1 0.00 0.00 0.00 49 1017.5
20260906055306 29 132 14.5 16.1 0.00 0.00 0.00 49 1017.5
20260906055002 29 151 12.9 17.7 0.00 0.00 0.00 49 1017.5
20260906054802 29 151 9.7 17.7 0.00 0.00 0.00 49 1017.5
20260906054703 29 141 16.1 17.7 0.00 0.00 0.00 49 1017.5
20260906054602 29 142 12.9 17.7 0.00 0.00 0.00 49 1017.6
20260906054502 29 135 14.5 17.7 0.00 0.00 0.00 49 1017.5
20260906054303 29 139 14.5 17.7 0.00 0.00 0.00 49 1017.5
20260906054203 29 138 12.9 17.7 0.00 0.00 0.00 50 1017.5
20260906054102 29 140 11.3 14.5 0.00 0.00 0.00 49 1017.5
20260906054002 29 141 12.9 14.5 0.00 0.00 0.00 49 1017.6
20260906053903 29 136 11.3 14.5 0.00 0.00 0.00 49 1017.6
20260906053801 29 137 12.9 14.5 0.00 0.00 0.00 49 1017.5
20260906053702 29 132 11.3 14.5 0.00 0.00 0.00 49 1017.5
20260906053603 29 136 8.0 14.5 0.00 0.00 0.00 49 1017.5
20260906053402 29 136 6.4 14.5 0.00 0.00 0.00 49 1017.5
20260906053303 29 134 8.0 14.5 0.00 0.00 0.00 49 1017.6
20260906053202 29 137 8.0 16.1 0.00 0.00 0.00 49 1017.6
20260906053102 29 133 11.3 16.1 0.00 0.00 0.00 49 1017.6
20260906052803 29 138 11.3 16.1 0.00 0.00 0.00 48 1017.5
20260906052602 29 143 12.9 16.1 0.00 0.00 0.00 49 1017.5
20260906052503 29 138 11.3 16.1 0.00 0.00 0.00 49 1017.5
20260906052403 29 135 12.9 16.1 0.00 0.00 0.00 49 1017.5
20260906052305 29 137 12.9 14.5 0.00 0.00 0.00 49 1017.5
20260906052202 29 140 11.3 14.5 0.00 0.00 0.00 49 1017.5
20260906052103 29 143 12.9 14.5 0.00 0.00 0.00 49 1017.5
20260906051903 28 144 12.9 12.9 0.00 0.00 0.00 49 1017.5
20260906051802 28 146 8.0 12.9 0.00 0.00 0.00 49 1017.6
20260906051702 28 146 6.4 12.9 0.00 0.00 0.00 49 1017.5
20260906051603 28 148 6.4 12.9 0.00 0.00 0.00 50 1017.6
20260906051503 28 150 8.0 12.9 0.00 0.00 0.00 50 1017.6
20260906051403 28 153 12.9 12.9 0.00 0.00 0.00 50 1017.6
20260906051202 28 157 9.7 9.7 0.00 0.00 0.00 50 1017.5
20260906051000 28 159 6.4 9.7 0.00 0.00 0.00 50 1017.5
20260906050902 28 159 8.0 9.7 0.00 0.00 0.00 50 1017.5
20260906050804 28 159 8.0 9.7 0.00 0.00 0.00 50 1017.5
20260906050604 28 161 3.2 8.0 0.00 0.00 0.00 50 1017.5
20260906050502 28 161 6.4 8.0 0.00 0.00 0.00 50 1017.5
20260906050403 28 161 6.4 8.0 0.00 0.00 0.00 50 1017.5
20260906050303 28 161 3.2 8.0 0.00 0.00 0.00 50 1017.5
20260906050203 28 161 6.4 9.7 0.00 0.00 0.00 49 1017.5
20260906050104 28 161 6.4 9.7 0.00 0.00 0.00 49 1017.5
20260906050002 28 161 3.2 9.7 0.00 0.00 0.00 49 1017.5
20260906045902 28 161 3.2 9.7 0.00 0.00 0.00 49 1017.5
20260906045702 28 161 3.2 9.7 0.00 0.00 0.00 49 1017.5
20260906045603 28 161 6.4 9.7 0.00 0.00 0.00 49 1017.4
20260906045503 28 161 6.4 9.7 0.00 0.00 0.00 49 1017.5
20260906045402 28 161 8.0 9.7 0.00 0.00 0.00 49 1017.5
20260906045301 28 161 3.2 8.0 0.00 0.00 0.00 49 1017.5
20260906045202 28 161 6.4 8.0 0.00 0.00 0.00 49 1017.5
20260906045103 28 161 6.4 8.0 0.00 0.00 0.00 49 1017.5
20260906045002 28 161 6.4 8.0 0.00 0.00 0.00 49 1017.5
20260906044902 28 162 6.4 8.0 0.00 0.00 0.00 48 1017.5
20260906044701 28 162 6.4 9.7 0.00 0.00 0.00 48 1017.5
20260906044602 28 162 6.4 9.7 0.00 0.00 0.00 48 1017.4
20260906044502 28 162 6.4 9.7 0.00 0.00 0.00 48 1017.5
20260906044302 28 162 6.4 9.7 0.00 0.00 0.00 48 1017.5
20260906044202 28 162 3.2 9.7 0.00 0.00 0.00 48 1017.5
20260906044102 28 162 6.4 9.7 0.00 0.00 0.00 48 1017.5
20260906044003 28 162 6.4 9.7 0.00 0.00 0.00 48 1017.5
20260906043901 28 162 6.4 9.7 0.00 0.00 0.00 48 1017.5
20260906043802 28 162 6.4 9.7 0.00 0.00 0.00 48 1017.5
20260906043701 29 161 6.4 9.7 0.00 0.00 0.00 47 1017.5
20260906043601 29 161 8.0 9.7 0.00 0.00 0.00 47 1017.5
20260906043502 29 161 6.4 11.3 0.00 0.00 0.00 47 1017.5
20260906043402 29 161 6.4 11.3 0.00 0.00 0.00 47 1017.5
20260906043302 29 161 3.2 12.9 0.00 0.00 0.00 47 1017.5
20260906043202 29 161 8.0 12.9 0.00 0.00 0.00 47 1017.5
20260906043101 29 161 6.4 12.9 0.00 0.00 0.00 47 1017.5
20260906043002 29 161 8.0 12.9 0.00 0.00 0.00 47 1017.5
20260906042802 29 159 6.4 14.5 0.00 0.00 0.00 47 1017.5
20260906042703 29 159 6.4 14.5 0.00 0.00 0.00 47 1017.6
20260906042503 29 158 8.0 14.5 0.00 0.00 0.00 47 1017.5
20260906042306 29 155 11.3 14.5 0.00 0.00 0.00 46 1017.5
20260906042203 29 153 8.0 14.5 0.00 0.00 0.00 46 1017.5
20260906042102 29 150 6.4 14.5 0.00 0.00 0.00 46 1017.5
20260906042002 29 151 8.0 14.5 0.00 0.00 0.00 46 1017.5
20260906041901 29 148 8.0 14.5 0.00 0.00 0.00 46 1017.5
20260906041802 29 144 8.0 14.5 0.00 0.00 0.00 46 1017.5
20260906041702 29 144 14.5 14.5 0.00 0.00 0.00 46 1017.5
20260906041602 29 144 12.9 12.9 0.00 0.00 0.00 46 1017.4
20260906041502 29 146 8.0 12.9 0.00 0.00 0.00 46 1017.5
20260906041402 29 146 6.4 12.9 0.00 0.00 0.00 46 1017.5
20260906041302 29 146 9.7 12.9 0.00 0.00 0.00 46 1017.5
20260906041202 29 146 8.0 12.9 0.00 0.00 0.00 46 1017.6
20260906041002 29 149 8.0 12.9 0.00 0.00 0.00 45 1017.5
20260906040902 29 150 8.0 12.9 0.00 0.00 0.00 45 1017.5
20260906040803 29 149 8.0 12.9 0.00 0.00 0.00 45 1017.6
20260906040602 29 149 8.0 12.9 0.00 0.00 0.00 45 1017.6
20260906040503 29 148 12.9 12.9 0.00 0.00 0.00 45 1017.7
20260906040302 29 144 8.0 12.9 0.00 0.00 0.00 45 1017.7
20260906040202 29 145 9.7 12.9 0.00 0.00 0.00 45 1017.7
20260906040003 29 146 8.0 12.9 0.00 0.00 0.00 45 1017.7
20260906035902 29 146 6.4 12.9 0.00 0.00 0.00 45 1017.7
20260906035602 29 146 8.0 12.9 0.00 0.00 0.00 45 1017.8
20260906035502 29 146 9.7 12.9 0.00 0.00 0.00 45 1017.8
20260906035403 29 148 8.0 12.9 0.00 0.00 0.00 45 1017.8
20260906035305 29 146 9.7 12.9 0.00 0.00 0.00 45 1017.8
20260906035201 28 141 8.0 12.9 0.00 0.00 0.00 45 1017.8
20260906035103 28 143 8.0 12.9 0.00 0.00 0.00 45 1017.8
20260906034902 28 144 6.4 14.5 0.00 0.00 0.00 44 1017.8
20260906034802 28 141 8.0 14.5 0.00 0.00 0.00 44 1017.8
20260906034702 28 142 8.0 14.5 0.00 0.00 0.00 44 1017.8
20260906034602 28 143 9.7 14.5 0.00 0.00 0.00 44 1017.8
20260906034502 28 142 6.4 14.5 0.00 0.00 0.00 44 1017.8
20260906034402 28 142 8.0 14.5 0.00 0.00 0.00 44 1017.8
20260906034302 28 140 11.3 14.5 0.00 0.00 0.00 44 1017.8
20260906034202 28 138 11.3 14.5 0.00 0.00 0.00 44 1017.8
20260906034102 28 142 9.7 14.5 0.00 0.00 0.00 44 1017.7
20260906034002 28 143 9.7 12.9 0.00 0.00 0.00 44 1017.7
20260906033901 28 140 8.0 12.9 0.00 0.00 0.00 44 1017.7
20260906033802 28 142 8.0 12.9 0.00 0.00 0.00 44 1017.7
20260906033703 28 146 9.7 12.9 0.00 0.00 0.00 44 1017.7
20260906033603 28 142 8.0 12.9 0.00 0.00 0.00 44 1017.7
20260906033503 28 141 11.3 11.3 0.00 0.00 0.00 44 1017.7
20260906033401 28 144 9.7 11.3 0.00 0.00 0.00 44 1017.8
20260906033202 28 140 8.0 11.3 0.00 0.00 0.00 43 1017.8
20260906033103 28 140 6.4 11.3 0.00 0.00 0.00 43 1017.8
20260906033002 28 141 8.0 8.0 0.00 0.00 0.00 43 1017.7
20260906032802 28 140 8.0 8.0 0.00 0.00 0.00 43 1017.7
20260906032703 28 140 8.0 8.0 0.00 0.00 0.00 43 1017.7
20260906032602 28 141 6.4 8.0 0.00 0.00 0.00 43 1017.7
20260906032502 28 142 8.0 8.0 0.00 0.00 0.00 43 1017.7
20260906032402 29 144 8.0 8.0 0.00 0.00 0.00 43 1017.7
20260906032305 29 144 8.0 8.0 0.00 0.00 0.00 43 1017.7
20260906032202 29 144 8.0 11.3 0.00 0.00 0.00 43 1017.7
20260906032102 29 144 8.0 11.3 0.00 0.00 0.00 43 1017.7
20260906032004 29 144 4.8 11.3 0.00 0.00 0.00 43 1017.6
20260906031802 29 142 4.8 11.3 0.00 0.00 0.00 42 1017.6
20260906031702 29 142 8.0 11.3 0.00 0.00 0.00 42 1017.6
20260906031602 29 142 6.4 11.3 0.00 0.00 0.00 42 1017.6
20260906031504 29 141 8.0 11.3 0.00 0.00 0.00 42 1017.6
20260906031402 30 142 6.4 12.9 0.00 0.00 0.00 42 1017.6
20260906031303 30 140 8.0 12.9 0.00 0.00 0.00 42 1017.5
20260906031202 30 140 11.3 12.9 0.00 0.00 0.00 42 1017.5
20260906031103 30 139 11.3 12.9 0.00 0.00 0.00 42 1017.4
20260906031002 30 138 6.4 12.9 0.00 0.00 0.00 42 1017.5
20260906030903 30 140 8.0 12.9 0.00 0.00 0.00 42 1017.5
20260906030802 30 138 11.3 12.9 0.00 0.00 0.00 42 1017.5
20260906030601 30 138 11.3 12.9 0.00 0.00 0.00 42 1017.5
20260906030502 30 138 8.0 11.3 0.00 0.00 0.00 42 1017.5
20260906030402 30 137 8.0 11.3 0.00 0.00 0.00 42 1017.4
20260906030302 30 140 8.0 11.3 0.00 0.00 0.00 41 1017.5
20260906030202 30 138 11.3 11.3 0.00 0.00 0.00 41 1017.5
20260906030006 30 144 8.0 11.3 0.00 0.00 0.00 41 1017.4
20260906025904 30 145 8.0 11.3 0.00 0.00 0.00 41 1017.5
20260906025804 30 144 6.4 11.3 0.00 0.00 0.00 40 1017.5
20260906025704 30 144 8.0 11.3 0.00 0.00 0.00 40 1017.5
20260906025604 30 144 6.4 11.3 0.00 0.00 0.00 40 1017.5
20260906025503 30 144 8.0 11.3 0.00 0.00 0.00 40 1017.5
20260906025404 30 144 8.0 9.7 0.00 0.00 0.00 40 1017.5
20260906025306 30 143 6.4 11.3 0.00 0.00 0.00 40 1017.4
20260906025202 30 143 6.4 11.3 0.00 0.00 0.00 40 1017.4
20260906024903 30 142 6.4 11.3 0.00 0.00 0.00 40 1017.3
20260906024703 30 140 8.0 11.3 0.00 0.00 0.00 40 1017.3
20260906024602 30 140 6.4 11.3 0.00 0.00 0.00 40 1017.3
20260906024403 31 139 6.4 8.0 0.00 0.00 0.00 40 1017.3
20260906024203 31 138 8.0 8.0 0.00 0.00 0.00 40 1017.3
20260906024103 31 137 6.4 8.0 0.00 0.00 0.00 40 1017.3
20260906024005 31 138 6.4 8.0 0.00 0.00 0.00 40 1017.2
20260906023903 31 138 4.8 8.0 0.00 0.00 0.00 39 1017.2
20260906023804 31 138 6.4 8.0 0.00 0.00 0.00 39 1017.1
20260906023704 31 138 6.4 8.0 0.00 0.00 0.00 39 1017.2
20260906023602 31 138 4.8 8.0 0.00 0.00 0.00 39 1017.1
20260906023504 31 138 6.4 8.0 0.00 0.00 0.00 39 1017.1
20260906023303 31 137 4.8 8.0 0.00 0.00 0.00 39 1017.1
20260906023203 31 136 8.0 8.0 0.00 0.00 0.00 39 1017.0
20260906023103 31 136 6.4 8.0 0.00 0.00 0.00 39 1017.0
20260906023004 31 135 6.4 8.0 0.00 0.00 0.00 39 1017.0
20260906022903 31 135 6.4 8.0 0.00 0.00 0.00 39 1017.0
20260906022805 31 134 6.4 6.4 0.00 0.00 0.00 39 1016.9
20260906022703 31 134 4.8 6.4 0.00 0.00 0.00 39 1016.9
20260906022602 31 133 4.8 6.4 0.00 0.00 0.00 39 1016.9
20260906022503 31 132 4.8 6.4 0.00 0.00 0.00 39 1016.9
20260906022306 31 132 6.4 6.4 0.00 0.00 0.00 39 1016.9
20260906022203 31 132 3.2 6.4 0.00 0.00 0.00 38 1016.9
20260906022004 31 131 4.8 6.4 0.00 0.00 0.00 38 1016.9
20260906021903 31 131 4.8 8.0 0.00 0.00 0.00 38 1016.9
20260906021704 31 130 4.8 8.0 0.00 0.00 0.00 38 1016.8
20260906021504 31 130 4.8 8.0 0.00 0.00 0.00 38 1016.8
20260906021404 31 130 4.8 8.0 0.00 0.00 0.00 38 1016.7
20260906021304 31 129 4.8 8.0 0.00 0.00 0.00 38 1016.7
20260906021203 31 129 4.8 8.0 0.00 0.00 0.00 38 1016.7
20260906021103 31 129 6.4 8.0 0.00 0.00 0.00 38 1016.6
20260906021003 31 129 8.0 8.0 0.00 0.00 0.00 38 1016.6
20260906020904 31 128 4.8 8.0 0.00 0.00 0.00 38 1016.5
20260906020804 32 129 6.4 8.0 0.00 0.00 0.00 38 1016.5
20260906020704 32 125 6.4 11.3 0.00 0.00 0.00 38 1016.5
20260906020603 32 124 4.8 11.3 0.00 0.00 0.00 38 1016.5
20260906020503 32 121 8.0 11.3 0.00 0.00 0.00 38 1016.5
20260906020404 32 122 8.0 11.3 0.00 0.00 0.00 38 1016.5
20260906020304 32 122 6.4 11.3 0.00 0.00 0.00 38 1016.5
20260906020203 32 122 8.0 11.3 0.00 0.00 0.00 38 1016.5
20260906015901 32 122 8.0 11.3 0.00 0.00 0.00 37 1016.5
20260906015702 32 124 8.0 11.3 0.00 0.00 0.00 37 1016.5
20260906015602 32 126 6.4 11.3 0.00 0.00 0.00 37 1016.5
20260906015503 32 131 6.4 11.3 0.00 0.00 0.00 37 1016.5
20260906015404 32 126 8.0 11.3 0.00 0.00 0.00 37 1016.5
20260906015305 32 126 8.0 11.3 0.00 0.00 0.00 37 1016.5
20260906015202 32 123 8.0 11.3 0.00 0.00 0.00 37 1016.5
20260906015103 32 121 4.8 11.3 0.00 0.00 0.00 37 1016.5
20260906015002 32 121 6.4 11.3 0.00 0.00 0.00 37 1016.4
20260906014903 32 125 6.4 11.3 0.00 0.00 0.00 37 1016.5
20260906014800 32 123 6.4 11.3 0.00 0.00 0.00 37 1016.4
20260906014702 32 123 6.4 11.3 0.00 0.00 0.00 37 1016.4
20260906014603 32 123 6.4 11.3 0.00 0.00 0.00 37 1016.4
20260906014503 32 128 11.3 11.3 0.00 0.00 0.00 37 1016.4
20260906014402 33 117 11.3 11.3 0.00 0.00 0.00 37 1016.3
20260906014302 33 126 8.0 12.9 0.00 0.00 0.00 37 1016.3
20260906014202 33 123 8.0 12.9 0.00 0.00 0.00 36 1016.3
20260906014103 33 121 8.0 12.9 0.00 0.00 0.00 36 1016.3
20260906014002 33 121 6.4 12.9 0.00 0.00 0.00 36 1016.3
20260906013902 33 126 8.0 12.9 0.00 0.00 0.00 36 1016.3
20260906013803 33 127 6.4 12.9 0.00 0.00 0.00 36 1016.3
20260906013603 33 126 11.3 14.5 0.00 0.00 0.00 36 1016.2
20260906013502 33 132 8.0 14.5 0.00 0.00 0.00 36 1016.2
20260906013403 33 124 8.0 14.5 0.00 0.00 0.00 36 1016.2
20260906013203 33 126 11.3 14.5 0.00 0.00 0.00 36 1016.1
20260906013102 33 126 11.3 16.1 0.00 0.00 0.00 36 1016.1
20260906013003 33 120 11.3 16.1 0.00 0.00 0.00 36 1016.1
20260906012801 33 109 9.7 16.1 0.00 0.00 0.00 36 1016.1
20260906012703 33 134 12.9 16.1 0.00 0.00 0.00 36 1016.0
20260906012603 33 121 8.0 16.1 0.00 0.00 0.00 35 1016.1
20260906012502 33 124 11.3 16.1 0.00 0.00 0.00 35 1016.1
20260906012402 33 122 11.3 16.1 0.00 0.00 0.00 35 1016.1
20260906012306 33 117 9.7 16.1 0.00 0.00 0.00 35 1016.0
20260906012102 33 118 12.9 16.1 0.00 0.00 0.00 35 1016.0
20260906012004 33 118 11.3 16.1 0.00 0.00 0.00 35 1016.0
20260906011904 33 115 11.3 16.1 0.00 0.00 0.00 35 1016.0
20260906011801 33 124 11.3 14.5 0.00 0.00 0.00 35 1016.0
20260906011703 33 120 11.3 14.5 0.00 0.00 0.00 35 1016.0
20260906011602 33 126 8.0 14.5 0.00 0.00 0.00 35 1015.9
20260906011503 33 120 8.0 14.5 0.00 0.00 0.00 35 1016.0
20260906011303 33 118 11.3 14.5 0.00 0.00 0.00 35 1016.0
20260906011202 34 119 11.3 14.5 0.00 0.00 0.00 35 1016.0
20260906011102 34 128 12.9 14.5 0.00 0.00 0.00 35 1015.9
20260906011002 34 122 11.3 14.5 0.00 0.00 0.00 35 1015.9
20260906010903 34 121 11.3 14.5 0.00 0.00 0.00 35 1015.9
20260906010702 34 113 9.7 14.5 0.00 0.00 0.00 34 1015.9
20260906010602 34 118 11.3 14.5 0.00 0.00 0.00 34 1015.9
20260906010505 34 115 11.3 14.5 0.00 0.00 0.00 34 1015.9
20260906010303 34 116 9.7 17.7 0.00 0.00 0.00 34 1016.0
20260906010202 34 119 8.0 17.7 0.00 0.00 0.00 34 1015.9
20260906010103 35 117 11.3 17.7 0.00 0.00 0.00 34 1015.9
20260906010004 35 123 12.9 17.7 0.00 0.00 0.00 34 1015.9
20260906005903 35 119 11.3 17.7 0.00 0.00 0.00 34 1015.9
20260906005803 35 119 12.9 19.3 0.00 0.00 0.00 34 1015.9
20260906005602 35 113 12.9 19.3 0.00 0.00 0.00 34 1015.9
20260906005502 35 113 12.9 20.9 0.00 0.00 0.00 34 1015.8
20260906005402 35 119 12.9 24.1 0.00 0.00 0.00 34 1015.8
20260906005306 35 116 11.3 24.1 0.00 0.00 0.00 33 1015.8
20260906005203 35 123 16.1 24.1 0.00 0.00 0.00 33 1015.8
20260906005103 35 114 11.3 24.1 0.00 0.00 0.00 33 1015.8
20260906005003 35 119 14.5 24.1 0.00 0.00 0.00 33 1015.7
20260906004902 35 114 19.3 24.1 0.00 0.00 0.00 33 1015.7
20260906004803 35 125 12.9 27.4 0.00 0.00 0.00 33 1015.7
20260906004703 35 121 16.1 27.4 0.00 0.00 0.00 33 1015.7
20260906004602 35 111 17.7 27.4 0.00 0.00 0.00 33 1015.7
20260906004402 35 118 16.1 27.4 0.00 0.00 0.00 33 1015.7
20260906004302 35 119 20.9 27.4 0.00 0.00 0.00 33 1015.7
20260906004203 35 115 19.3 27.4 0.00 0.00 0.00 33 1015.7
20260906004103 35 126 19.3 27.4 0.00 0.00 0.00 33 1015.6
20260906004002 35 126 20.9 27.4 0.00 0.00 0.00 33 1015.6
20260906003902 35 123 14.5 25.7 0.00 0.00 0.00 33 1015.6
20260906003803 35 121 24.1 25.7 0.00 0.00 0.00 33 1015.6
20260906003702 35 118 22.5 25.7 0.00 0.00 0.00 33 1015.6
20260906003501 35 124 22.5 25.7 0.00 0.00 0.00 32 1015.6
20260906003402 35 147 22.5 25.7 0.00 0.00 0.00 32 1015.6
20260906003203 35 134 12.9 22.5 0.00 0.00 0.00 32 1015.6
20260906003101 36 139 16.1 24.1 0.00 0.00 0.00 32 1015.6
20260906003002 36 145 17.7 24.1 0.00 0.00 0.00 32 1015.6
20260906002903 36 120 14.5 24.1 0.00 0.00 0.00 32 1015.6
20260906002802 36 129 14.5 24.1 0.00 0.00 0.00 32 1015.6
20260906002702 36 122 16.1 24.1 0.00 0.00 0.00 32 1015.6
20260906002602 36 115 12.9 24.1 0.00 0.00 0.00 32 1015.5
20260906002402 36 121 19.3 25.7 0.00 0.00 0.00 32 1015.6
20260906002305 36 118 20.9 25.7 0.00 0.00 0.00 32 1015.6
20260906002202 36 132 12.9 25.7 0.00 0.00 0.00 32 1015.6
20260906002003 36 111 9.7 25.7 0.00 0.00 0.00 33 1015.6
20260906001902 36 126 16.1 25.7 0.00 0.00 0.00 32 1015.6
20260906001802 36 125 17.7 29.0 0.00 0.00 0.00 32 1015.6
20260906001502 36 131 16.1 29.0 0.00 0.00 0.00 32 1015.6
20260906001402 36 119 17.7 29.0 0.00 0.00 0.00 32 1015.6
20260906001302 36 120 17.7 29.0 0.00 0.00 0.00 32 1015.6
20260906001202 36 135 16.1 29.0 0.00 0.00 0.00 32 1015.5
20260906001002 36 142 17.7 29.0 0.00 0.00 0.00 32 1015.5
20260906000903 36 136 20.9 29.0 0.00 0.00 0.00 32 1015.5
20260906000802 36 123 20.9 29.0 0.00 0.00 0.00 32 1015.6
20260906000703 36 134 16.1 29.0 0.00 0.00 0.00 32 1015.5
20260906000602 36 142 17.7 29.0 0.00 0.00 0.00 32 1015.5
20260906000503 36 142 16.1 29.0 0.00 0.00 0.00 32 1015.5
20260906000403 36 134 16.1 29.0 0.00 0.00 0.00 32 1015.5
20260906000303 36 124 22.5 29.0 0.00 0.00 0.00 32 1015.4
20260906000204 36 120 24.1 25.7 0.00 0.00 0.00 32 1015.4
20260906000103 36 122 17.7 25.7 0.00 0.00 0.00 31 1015.4
20260906000006 36 121 14.5 27.4 0.00 0.00 0.00 31 1015.4
20260905235903 36 127 16.1 27.4 0.00 0.00 0.00 31 1015.3
20260905235802 36 124 16.1 27.4 0.00 0.00 0.00 31 1015.3
20260905235702 36 117 19.3 27.4 0.00 0.00 0.00 31 1015.3
20260905235603 36 130 14.5 27.4 0.00 0.00 0.00 31 1015.3
20260905235402 36 132 22.5 27.4 0.00 0.00 0.00 31 1015.2
20260905235306 36 128 22.5 27.4 0.00 0.00 0.00 31 1015.2
20260905235203 36 119 19.3 27.4 0.00 0.00 0.00 31 1015.2
20260905235003 36 143 19.3 22.5 0.00 0.00 0.00 31 1015.2
20260905234901 36 143 14.5 22.5 0.00 0.00 0.00 31 1015.2
20260905234803 36 136 16.1 22.5 0.00 0.00 0.00 31 1015.2
20260905234702 36 134 14.5 22.5 0.00 0.00 0.00 32 1015.2
20260905234602 36 132 14.5 22.5 0.00 0.00 0.00 32 1015.2
20260905234403 36 162 16.1 25.7 0.00 0.00 0.00 32 1015.2
20260905234302 36 162 11.3 25.7 0.00 0.00 0.00 32 1015.2
20260905234203 36 152 14.5 25.7 0.00 0.00 0.00 32 1015.2
20260905234102 36 165 11.3 25.7 0.00 0.00 0.00 32 1015.2
20260905233903 36 143 16.1 25.7 0.00 0.00 0.00 32 1015.2
20260905233702 36 144 19.3 25.7 0.00 0.00 0.00 32 1015.1
20260905233502 36 140 20.9 24.1 0.00 0.00 0.00 32 1015.0
20260905233403 36 123 14.5 27.4 0.00 0.00 0.00 32 1015.1
20260905233301 36 117 14.5 27.4 0.00 0.00 0.00 32 1015.0
20260905233202 36 119 19.3 27.4 0.00 0.00 0.00 32 1015.1
20260905233103 36 126 17.7 27.4 0.00 0.00 0.00 32 1015.0
20260905233004 36 131 16.1 27.4 0.00 0.00 0.00 32 1015.1
20260905232903 36 138 11.3 27.4 0.00 0.00 0.00 32 1015.1
20260905232802 36 165 17.7 27.4 0.00 0.00 0.00 32 1015.0
20260905232703 36 156 16.1 27.4 0.00 0.00 0.00 31 1015.0
20260905232602 36 146 22.5 27.4 0.00 0.00 0.00 32 1015.0
20260905232502 36 142 22.5 25.7 0.00 0.00 0.00 32 1014.9
20260905232401 36 185 16.1 25.7 0.00 0.00 0.00 32 1014.9
20260905232203 36 155 12.9 29.0 0.00 0.00 0.00 32 1014.9
20260905232102 36 157 11.3 32.2 0.00 0.00 0.00 32 1014.9
20260905232002 36 148 19.3 32.2 0.00 0.00 0.00 32 1014.9
20260905231902 36 156 9.7 32.2 0.00 0.00 0.00 32 1014.8
20260905231802 36 127 16.1 32.2 0.00 0.00 0.00 32 1014.9
20260905231703 36 138 19.3 32.2 0.00 0.00 0.00 31 1014.8
20260905231602 37 136 19.3 32.2 0.00 0.00 0.00 31 1014.9
20260905231502 37 153 16.1 32.2 0.00 0.00 0.00 31 1014.8
20260905231402 37 140 22.5 32.2 0.00 0.00 0.00 31 1014.8
20260905231302 37 166 24.1 30.6 0.00 0.00 0.00 31 1014.8
20260905231202 37 138 27.4 27.4 0.00 0.00 0.00 31 1014.8
20260905231102 37 126 22.5 24.1 0.00 0.00 0.00 31 1014.8
20260905230803 37 166 8.0 24.1 0.00 0.00 0.00 31 1014.9
20260905230603 37 155 11.3 29.0 0.00 0.00 0.00 31 1014.9
20260905230503 37 167 14.5 29.0 0.00 0.00 0.00 30 1014.9
20260905230403 37 154 16.1 29.0 0.00 0.00 0.00 30 1014.9
20260905230303 37 180 20.9 29.0 0.00 0.00 0.00 31 1014.9
20260905230201 37 131 12.9 29.0 0.00 0.00 0.00 30 1014.9
20260905230002 37 128 17.7 29.0 0.00 0.00 0.00 30 1014.8
20260905225903 37 137 22.5 29.0 0.00 0.00 0.00 30 1014.8
20260905225802 37 141 24.1 27.4 0.00 0.00 0.00 31 1014.8
20260905225703 37 126 14.5 27.4 0.00 0.00 0.00 31 1014.8
20260905225601 37 156 8.0 27.4 0.00 0.00 0.00 30 1014.8
20260905225501 37 163 6.4 27.4 0.00 0.00 0.00 30 1014.8
20260905225403 37 165 19.3 27.4 0.00 0.00 0.00 31 1014.8
20260905225305 37 147 19.3 29.0 0.00 0.00 0.00 31 1014.8
20260905225203 37 150 16.1 29.0 0.00 0.00 0.00 31 1014.8
20260905225102 37 152 16.1 29.0 0.00 0.00 0.00 31 1014.8
20260905225002 37 163 17.7 29.0 0.00 0.00 0.00 31 1014.8
20260905224903 37 167 12.9 29.0 0.00 0.00 0.00 31 1014.8
20260905224803 37 159 9.7 29.0 0.00 0.00 0.00 31 1014.8
20260905224503 37 168 27.4 29.0 0.00 0.00 0.00 31 1014.8
20260905224402 37 132 6.4 24.1 0.00 0.00 0.00 31 1014.8
20260905224203 37 141 16.1 24.1 0.00 0.00 0.00 31 1014.8
20260905224102 37 150 17.7 27.4 0.00 0.00 0.00 31 1014.8
20260905224002 37 153 19.3 27.4 0.00 0.00 0.00 31 1014.8
20260905223902 37 201 9.7 27.4 0.00 0.00 0.00 31 1014.8
20260905223803 37 186 11.3 30.6 0.00 0.00 0.00 31 1014.8
20260905223703 37 160 16.1 30.6 0.00 0.00 0.00 31 1014.8
20260905223603 37 152 22.5 30.6 0.00 0.00 0.00 31 1014.8
20260905223503 37 139 22.5 30.6 0.00 0.00 0.00 30 1014.7
20260905223402 37 113 20.9 30.6 0.00 0.00 0.00 30 1014.8
20260905223303 37 130 24.1 30.6 0.00 0.00 0.00 30 1014.7
20260905223202 37 136 22.5 30.6 0.00 0.00 0.00 30 1014.8
20260905223102 37 124 19.3 30.6 0.00 0.00 0.00 30 1014.7
20260905223004 37 150 16.1 30.6 0.00 0.00 0.00 31 1014.8
20260905222801 37 181 14.5 30.6 0.00 0.00 0.00 31 1014.7
20260905222703 37 165 9.7 30.6 0.00 0.00 0.00 31 1014.8
20260905222602 37 146 14.5 30.6 0.00 0.00 0.00 31 1014.8
20260905222502 37 167 12.9 30.6 0.00 0.00 0.00 31 1014.8
20260905222401 37 149 16.1 30.6 0.00 0.00 0.00 31 1014.8
20260905222202 37 144 16.1 30.6 0.00 0.00 0.00 31 1014.8
20260905222104 37 141 29.0 29.0 0.00 0.00 0.00 31 1014.8
20260905222002 37 151 17.7 20.9 0.00 0.00 0.00 31 1014.9
20260905221904 37 162 11.3 20.9 0.00 0.00 0.00 31 1014.8
20260905221803 37 186 11.3 20.9 0.00 0.00 0.00 30 1014.9
20260905221702 37 165 9.7 20.9 0.00 0.00 0.00 30 1014.9
20260905221602 37 165 17.7 24.1 0.00 0.00 0.00 30 1014.9
20260905221402 37 198 11.3 29.0 0.00 0.00 0.00 31 1015.0
20260905221202 37 156 9.7 29.0 0.00 0.00 0.00 31 1014.9
20260905220932 37 145 17.7 29.0 0.00 0.00 0.00 31 1015.0
20260905220602 37 167 22.5 25.7 0.00 0.00 0.00 31 1015.0
20260905220504 37 147 25.7 25.7 0.00 0.00 0.00 31 1015.0
20260905220402 37 168 16.1 24.1 0.00 0.00 0.00 31 1015.0
20260905220202 37 143 14.5 27.4 0.00 0.00 0.00 31 1015.0
20260905220103 37 117 20.9 27.4 0.00 0.00 0.00 31 1015.1
20260905220004 37 121 17.7 27.4 0.00 0.00 0.00 31 1015.1
20260905215903 37 128 16.1 27.4 0.00 0.00 0.00 31 1015.1
20260905215802 37 138 16.1 27.4 0.00 0.00 0.00 31 1015.1
20260905215702 37 128 12.9 27.4 0.00 0.00 0.00 31 1015.1
20260905215503 37 108 16.1 29.0 0.00 0.00 0.00 31 1015.1
20260905215402 37 142 16.1 29.0 0.00 0.00 0.00 31 1015.1
20260905215306 37 128 27.4 29.0 0.00 0.00 0.00 31 1015.1
20260905215204 37 105 9.7 29.0 0.00 0.00 0.00 31 1015.1
20260905215103 37 66 4.8 29.0 0.00 0.00 0.00 31 1015.1
20260905214802 37 132 19.3 33.8 0.00 0.00 0.00 31 1015.2
20260905214702 37 135 16.1 33.8 0.00 0.00 0.00 31 1015.3
20260905214603 37 136 27.4 33.8 0.00 0.00 0.00 31 1015.2
20260905214503 37 116 19.3 33.8 0.00 0.00 0.00 31 1015.3
20260905214402 37 123 25.7 33.8 0.00 0.00 0.00 31 1015.3
20260905214302 37 144 14.5 33.8 0.00 0.00 0.00 31 1015.3
20260905214202 37 152 20.9 33.8 0.00 0.00 0.00 31 1015.3
20260905214102 37 153 29.0 33.8 0.00 0.00 0.00 31 1015.3
20260905214004 37 156 30.6 30.6 0.00 0.00 0.00 31 1015.3
20260905213904 37 126 14.5 30.6 0.00 0.00 0.00 31 1015.2
20260905213704 37 181 11.3 25.7 0.00 0.00 0.00 31 1015.3
20260905213603 37 206 12.9 25.7 0.00 0.00 0.00 31 1015.3